Time,TemperatureF,DewpointF,PressureIn,WindDirection,WindDirectionDegrees,WindSpeedMPH,WindSpeedGustMPH,Humidity,HourlyPrecipIn,Conditions,Clouds,dailyrainin,SolarRadiationWatts/m^2,SoftwareType,DateUTC
2013-03-07 00:02:00,5.3,2.5,30.45,WNW,284,0.0,0.0,88,0.00,,,0.00,0,Wunderground v.1.15,2013-03-07 06:02:00,
2013-03-07 00:03:00,5.3,2.5,30.45,WNW,284,0.0,0.0,88,0.00,,,0.00,0,Wunderground v.1.15,2013-03-07 06:03:00,
2013-03-07 00:05:00,5.3,2.5,30.45,WNW,284,0.0,0.0,88,0.00,,,0.00,0,Wunderground v.1.15,2013-03-07 06:05:00,
2013-03-07 00:09:00,5.0,2.2,30.45,WNW,284,0.0,0.0,88,0.00,,,0.00,0,Wunderground v.1.15,2013-03-07 06:09:00,
2013-03-07 00:13:00,4.9,1.9,30.45,WNW,284,0.0,0.0,87,0.00,,,0.00,0,Wunderground v.1.15,2013-03-07 06:13:00,
2013-03-07 00:14:00,4.9,1.9,30.45,WNW,284,0.0,0.0,87,0.00,,,0.00,0,Wunderground v.1.15,2013-03-07 06:14:00,
2013-03-07 00:18:00,4.4,1.4,30.46,WNW,284,0.0,0.0,87,0.00,,,0.00,0,Wunderground v.1.15,2013-03-07 06:18:00,
2013-03-07 00:22:00,4.0,1.0,30.46,WNW,284,0.0,0.0,87,0.00,,,0.00,0,Wunderground v.1.15,2013-03-07 06:22:00,
2013-03-07 00:23:00,4.0,1.0,30.46,WNW,284,0.0,0.0,87,0.00,,,0.00,0,Wunderground v.1.15,2013-03-07 06:23:00,
2013-03-07 00:24:00,4.0,1.0,30.46,WNW,284,0.0,0.0,87,0.00,,,0.00,0,Wunderground v.1.15,2013-03-07 06:24:00,
2013-03-07 00:25:00,4.1,1.1,30.46,WNW,284,0.0,0.0,87,0.00,,,0.00,0,Wunderground v.1.15,2013-03-07 06:25:00,
2013-03-07 00:30:00,4.2,1.2,30.46,WNW,284,0.0,0.0,87,0.00,,,0.00,0,Wunderground v.1.15,2013-03-07 06:30:00,
2013-03-07 00:31:00,4.1,1.1,30.46,WNW,284,0.0,0.0,87,0.00,,,0.00,0,Wunderground v.1.15,2013-03-07 06:31:00,
2013-03-07 00:35:00,3.9,0.9,30.46,WNW,284,0.0,0.0,87,0.00,,,0.00,0,Wunderground v.1.15,2013-03-07 06:35:00,
2013-03-07 00:36:00,4.0,1.0,30.46,WNW,284,0.0,0.0,87,0.00,,,0.00,0,Wunderground v.1.15,2013-03-07 06:36:00,
2013-03-07 00:37:00,4.0,1.0,30.46,WNW,284,0.0,0.0,87,0.00,,,0.00,0,Wunderground v.1.15,2013-03-07 06:37:00,
2013-03-07 00:38:00,4.0,1.0,30.46,WNW,284,0.0,0.0,87,0.00,,,0.00,0,Wunderground v.1.15,2013-03-07 06:38:00,
2013-03-07 00:43:00,3.8,0.8,30.46,WNW,284,0.0,0.0,87,0.00,,,0.00,0,Wunderground v.1.15,2013-03-07 06:43:00,
2013-03-07 00:44:00,3.7,0.7,30.46,WNW,284,0.0,0.0,87,0.00,,,0.00,0,Wunderground v.1.15,2013-03-07 06:44:00,
2013-03-07 00:48:00,3.4,0.4,30.47,WNW,284,0.0,0.0,87,0.00,,,0.00,0,Wunderground v.1.15,2013-03-07 06:48:00,
2013-03-07 00:49:00,3.3,0.3,30.46,WNW,284,0.0,0.0,87,0.00,,,0.00,0,Wunderground v.1.15,2013-03-07 06:49:00,
2013-03-07 00:50:00,3.3,0.3,30.47,WNW,284,0.0,0.0,87,0.00,,,0.00,0,Wunderground v.1.15,2013-03-07 06:50:00,
2013-03-07 00:53:00,3.6,0.8,30.47,WNW,284,0.0,0.0,88,0.00,,,0.00,0,Wunderground v.1.15,2013-03-07 06:53:00,
2013-03-07 00:56:00,4.0,1.2,30.47,WNW,284,0.0,0.0,88,0.00,,,0.00,0,Wunderground v.1.15,2013-03-07 06:56:00,
2013-03-07 00:57:00,3.9,0.9,30.47,WNW,284,0.0,0.0,87,0.00,,,0.00,0,Wunderground v.1.15,2013-03-07 06:57:00,
2013-03-07 00:58:00,3.7,0.7,30.47,WNW,284,0.0,0.0,87,0.00,,,0.00,0,Wunderground v.1.15,2013-03-07 06:58:00,
2013-03-07 01:03:00,3.5,0.5,30.47,WNW,284,0.0,0.0,87,0.00,,,0.00,0,Wunderground v.1.15,2013-03-07 07:03:00,
2013-03-07 01:04:00,3.6,0.6,30.47,WNW,284,0.0,0.0,87,0.00,,,0.00,0,Wunderground v.1.15,2013-03-07 07:04:00,
2013-03-07 01:05:00,3.7,0.7,30.47,WNW,284,0.0,0.0,87,0.00,,,0.00,0,Wunderground v.1.15,2013-03-07 07:05:00,
2013-03-07 01:06:00,3.7,0.7,30.47,WNW,284,0.0,0.0,87,0.00,,,0.00,0,Wunderground v.1.15,2013-03-07 07:06:00,
2013-03-07 01:10:00,3.7,0.7,30.47,WNW,284,0.0,0.0,87,0.00,,,0.00,0,Wunderground v.1.15,2013-03-07 07:10:00,
2013-03-07 01:12:00,3.5,0.5,30.47,WNW,284,0.0,0.0,87,0.00,,,0.00,0,Wunderground v.1.15,2013-03-07 07:12:00,
2013-03-07 01:14:00,3.3,0.3,30.47,WNW,284,0.0,0.0,87,0.00,,,0.00,0,Wunderground v.1.15,2013-03-07 07:14:00,
2013-03-07 01:16:00,3.2,0.2,30.47,WNW,284,0.0,0.0,87,0.00,,,0.00,0,Wunderground v.1.15,2013-03-07 07:16:00,
2013-03-07 01:18:00,3.1,0.1,30.48,WNW,284,0.0,0.0,87,0.00,,,0.00,0,Wunderground v.1.15,2013-03-07 07:18:00,
2013-03-07 01:20:00,3.2,0.2,30.48,WNW,284,0.0,0.0,87,0.00,,,0.00,0,Wunderground v.1.15,2013-03-07 07:20:00,
2013-03-07 01:22:00,3.1,0.1,30.48,WNW,284,0.0,0.0,87,0.00,,,0.00,0,Wunderground v.1.15,2013-03-07 07:22:00,
2013-03-07 01:25:00,3.2,0.2,30.48,WNW,284,0.0,0.0,87,0.00,,,0.00,0,Wunderground v.1.15,2013-03-07 07:25:00,
2013-03-07 01:26:00,3.2,0.2,30.47,WNW,284,0.0,0.0,87,0.00,,,0.00,0,Wunderground v.1.15,2013-03-07 07:26:00,
2013-03-07 01:28:00,3.2,0.2,30.47,WNW,284,0.0,0.0,87,0.00,,,0.00,0,Wunderground v.1.15,2013-03-07 07:28:00,
2013-03-07 01:31:00,3.2,0.2,30.47,WNW,284,0.0,0.0,87,0.00,,,0.00,0,Wunderground v.1.15,2013-03-07 07:31:00,
2013-03-07 01:32:00,3.1,0.1,30.47,WNW,284,0.0,0.0,87,0.00,,,0.00,0,Wunderground v.1.15,2013-03-07 07:32:00,
2013-03-07 01:36:00,2.7,-0.5,30.47,WNW,284,0.0,0.0,86,0.00,,,0.00,0,Wunderground v.1.15,2013-03-07 07:36:00,
2013-03-07 01:38:00,2.6,-0.6,30.47,WNW,284,0.0,0.0,86,0.00,,,0.00,0,Wunderground v.1.15,2013-03-07 07:38:00,
2013-03-07 01:42:00,2.3,-0.7,30.47,WNW,284,0.0,0.0,87,0.00,,,0.00,0,Wunderground v.1.15,2013-03-07 07:42:00,
2013-03-07 01:46:00,2.2,-1.0,30.48,WNW,284,0.0,0.0,86,0.00,,,0.00,0,Wunderground v.1.15,2013-03-07 07:46:00,
2013-03-07 01:47:00,2.1,-1.1,30.48,WNW,284,0.0,0.0,86,0.00,,,0.00,0,Wunderground v.1.15,2013-03-07 07:47:00,
2013-03-07 01:51:00,2.2,-0.8,30.48,WNW,284,0.0,0.0,87,0.00,,,0.00,0,Wunderground v.1.15,2013-03-07 07:51:00,
2013-03-07 01:53:00,2.2,-0.8,30.48,WNW,284,0.0,0.0,87,0.00,,,0.00,0,Wunderground v.1.15,2013-03-07 07:53:00,
2013-03-07 01:57:00,2.3,-0.7,30.48,WNW,284,0.0,0.0,87,0.00,,,0.00,0,Wunderground v.1.15,2013-03-07 07:57:00,
2013-03-07 01:58:00,2.4,-0.6,30.48,WNW,284,0.0,0.0,87,0.00,,,0.00,0,Wunderground v.1.15,2013-03-07 07:58:00,
2013-03-07 02:00:00,2.4,-0.6,30.48,WNW,284,0.0,0.0,87,0.00,,,0.00,0,Wunderground v.1.15,2013-03-07 08:00:00,
2013-03-07 02:02:00,2.2,-1.0,30.48,WNW,284,0.0,0.0,86,0.00,,,0.00,0,Wunderground v.1.15,2013-03-07 08:02:00,
2013-03-07 02:03:00,2.2,-1.0,30.48,WNW,284,0.0,0.0,86,0.00,,,0.00,0,Wunderground v.1.15,2013-03-07 08:03:00,
2013-03-07 02:07:00,2.0,-1.2,30.48,WNW,284,0.0,0.0,86,0.00,,,0.00,0,Wunderground v.1.15,2013-03-07 08:07:00,
2013-03-07 02:08:00,2.0,-1.2,30.48,WNW,284,0.0,0.0,86,0.00,,,0.00,0,Wunderground v.1.15,2013-03-07 08:08:00,
2013-03-07 02:13:00,2.0,-1.0,30.48,WNW,284,0.0,0.0,87,0.00,,,0.00,0,Wunderground v.1.15,2013-03-07 08:13:00,
2013-03-07 02:14:00,2.0,-1.0,30.48,WNW,284,0.0,0.0,87,0.00,,,0.00,0,Wunderground v.1.15,2013-03-07 08:14:00,
2013-03-07 02:15:00,2.0,-1.0,30.48,WNW,284,0.0,0.0,87,0.00,,,0.00,0,Wunderground v.1.15,2013-03-07 08:15:00,
2013-03-07 02:19:00,1.8,-1.4,30.48,WNW,284,0.0,0.0,86,0.00,,,0.00,0,Wunderground v.1.15,2013-03-07 08:19:00,
2013-03-07 02:20:00,1.8,-1.4,30.48,WNW,284,0.0,0.0,86,0.00,,,0.00,0,Wunderground v.1.15,2013-03-07 08:20:00,
2013-03-07 02:24:00,1.9,-1.1,30.48,WNW,284,0.0,0.0,87,0.00,,,0.00,0,Wunderground v.1.15,2013-03-07 08:24:00,
2013-03-07 02:29:00,1.9,-1.3,30.48,WNW,284,0.0,0.0,86,0.00,,,0.00,0,Wunderground v.1.15,2013-03-07 08:29:00,
2013-03-07 02:32:00,1.7,-1.5,30.48,WNW,284,0.0,0.0,86,0.00,,,0.00,0,Wunderground v.1.15,2013-03-07 08:32:00,
2013-03-07 02:35:00,1.4,-1.8,30.47,WNW,284,0.0,0.0,86,0.00,,,0.00,0,Wunderground v.1.15,2013-03-07 08:35:00,
2013-03-07 02:36:00,1.4,-1.8,30.47,WNW,284,0.0,0.0,86,0.00,,,0.00,0,Wunderground v.1.15,2013-03-07 08:36:00,
2013-03-07 02:40:00,1.4,-1.8,30.47,WNW,284,0.0,0.0,86,0.00,,,0.00,0,Wunderground v.1.15,2013-03-07 08:40:00,
2013-03-07 02:45:00,1.4,-1.8,30.47,WNW,284,0.0,0.0,86,0.00,,,0.00,0,Wunderground v.1.15,2013-03-07 08:45:00,
2013-03-07 02:46:00,1.4,-1.8,30.47,WNW,284,0.0,0.0,86,0.00,,,0.00,0,Wunderground v.1.15,2013-03-07 08:46:00,
2013-03-07 02:50:00,1.6,-1.6,30.47,WNW,284,0.0,0.0,86,0.00,,,0.00,0,Wunderground v.1.15,2013-03-07 08:50:00,
2013-03-07 02:52:00,1.5,-1.7,30.47,WNW,284,0.0,0.0,86,0.00,,,0.00,0,Wunderground v.1.15,2013-03-07 08:52:00,
2013-03-07 02:53:00,1.5,-1.7,30.47,WNW,284,0.0,0.0,86,0.00,,,0.00,0,Wunderground v.1.15,2013-03-07 08:53:00,
2013-03-07 02:55:00,1.3,-1.9,30.47,WNW,284,0.0,0.0,86,0.00,,,0.00,0,Wunderground v.1.15,2013-03-07 08:55:00,
2013-03-07 02:58:00,1.1,-2.1,30.47,WNW,284,0.0,0.0,86,0.00,,,0.00,0,Wunderground v.1.15,2013-03-07 08:58:00,
2013-03-07 03:00:00,1.0,-2.2,30.47,WNW,284,0.0,0.0,86,0.00,,,0.00,0,Wunderground v.1.15,2013-03-07 09:00:00,
2013-03-07 03:02:00,0.9,-2.3,30.47,WNW,284,0.0,0.0,86,0.00,,,0.00,0,Wunderground v.1.15,2013-03-07 09:02:00,
2013-03-07 03:06:00,0.7,-2.5,30.47,WNW,284,0.0,0.0,86,0.00,,,0.00,0,Wunderground v.1.15,2013-03-07 09:06:00,
2013-03-07 03:09:00,0.5,-2.7,30.47,WNW,284,0.0,0.0,86,0.00,,,0.00,0,Wunderground v.1.15,2013-03-07 09:09:00,
2013-03-07 03:12:00,0.4,-2.8,30.47,WNW,284,0.0,0.0,86,0.00,,,0.00,0,Wunderground v.1.15,2013-03-07 09:12:00,
2013-03-07 03:16:00,0.7,-2.5,30.47,WNW,284,0.0,0.0,86,0.00,,,0.00,0,Wunderground v.1.15,2013-03-07 09:16:00,
2013-03-07 03:20:00,0.7,-2.5,30.47,WNW,284,0.0,0.0,86,0.00,,,0.00,0,Wunderground v.1.15,2013-03-07 09:20:00,
2013-03-07 03:22:00,0.7,-2.5,30.47,WNW,284,0.0,0.0,86,0.00,,,0.00,0,Wunderground v.1.15,2013-03-07 09:22:00,
2013-03-07 03:23:00,0.7,-2.5,30.47,WNW,284,0.0,0.0,86,0.00,,,0.00,0,Wunderground v.1.15,2013-03-07 09:23:00,
2013-03-07 03:27:00,0.6,-2.6,30.47,WNW,284,0.0,0.0,86,0.00,,,0.00,0,Wunderground v.1.15,2013-03-07 09:27:00,
2013-03-07 03:30:00,0.7,-2.5,30.47,WNW,284,0.0,0.0,86,0.00,,,0.00,0,Wunderground v.1.15,2013-03-07 09:30:00,
2013-03-07 03:31:00,0.7,-2.5,30.47,WNW,284,0.0,0.0,86,0.00,,,0.00,0,Wunderground v.1.15,2013-03-07 09:31:00,
2013-03-07 03:35:00,0.7,-2.5,30.47,WNW,284,0.0,0.0,86,0.00,,,0.00,0,Wunderground v.1.15,2013-03-07 09:35:00,
2013-03-07 03:37:00,0.6,-2.6,30.47,WNW,284,0.0,0.0,86,0.00,,,0.00,0,Wunderground v.1.15,2013-03-07 09:37:00,
2013-03-07 03:39:00,0.5,-2.7,30.47,WNW,284,0.0,0.0,86,0.00,,,0.00,0,Wunderground v.1.15,2013-03-07 09:39:00,
2013-03-07 03:40:00,0.5,-2.7,30.47,WNW,284,0.0,0.0,86,0.00,,,0.00,0,Wunderground v.1.15,2013-03-07 09:40:00,
2013-03-07 03:43:00,0.5,-2.7,30.48,WNW,284,0.0,0.0,86,0.00,,,0.00,0,Wunderground v.1.15,2013-03-07 09:43:00,
2013-03-07 03:45:00,0.3,-2.9,30.48,WNW,284,0.0,0.0,86,0.00,,,0.00,0,Wunderground v.1.15,2013-03-07 09:45:00,
2013-03-07 03:48:00,0.2,-3.0,30.48,WNW,284,0.0,0.0,86,0.00,,,0.00,0,Wunderground v.1.15,2013-03-07 09:48:00,
2013-03-07 03:52:00,0.1,-3.1,30.48,WNW,284,0.0,0.0,86,0.00,,,0.00,0,Wunderground v.1.15,2013-03-07 09:52:00,
2013-03-07 03:53:00,0.1,-3.1,30.48,WNW,284,0.0,0.0,86,0.00,,,0.00,0,Wunderground v.1.15,2013-03-07 09:53:00,
2013-03-07 03:56:00,-0.1,-3.3,30.48,WNW,284,0.0,0.0,86,0.00,,,0.00,0,Wunderground v.1.15,2013-03-07 09:56:00,
2013-03-07 03:58:00,-0.1,-3.3,30.48,WNW,284,0.0,0.0,86,0.00,,,0.00,0,Wunderground v.1.15,2013-03-07 09:58:00,
2013-03-07 04:01:00,-0.1,-3.3,30.48,WNW,284,0.0,0.0,86,0.00,,,0.00,0,Wunderground v.1.15,2013-03-07 10:01:00,
2013-03-07 04:05:00,-0.3,-3.7,30.48,WNW,284,0.0,0.0,85,0.00,,,0.00,0,Wunderground v.1.15,2013-03-07 10:05:00,
2013-03-07 04:06:00,-0.3,-3.5,30.48,WNW,284,0.0,0.0,86,0.00,,,0.00,0,Wunderground v.1.15,2013-03-07 10:06:00,
2013-03-07 04:10:00,-0.3,-3.5,30.48,WNW,284,0.0,0.0,86,0.00,,,0.00,0,Wunderground v.1.15,2013-03-07 10:10:00,
2013-03-07 04:15:00,-0.6,-4.0,30.48,WNW,284,0.0,0.0,85,0.00,,,0.00,0,Wunderground v.1.15,2013-03-07 10:15:00,
2013-03-07 04:16:00,-0.6,-4.0,30.48,WNW,284,0.0,0.0,85,0.00,,,0.00,0,Wunderground v.1.15,2013-03-07 10:16:00,
2013-03-07 04:19:00,-0.7,-3.9,30.49,WNW,284,0.0,0.0,86,0.00,,,0.00,0,Wunderground v.1.15,2013-03-07 10:19:00,
2013-03-07 04:21:00,-0.6,-3.8,30.48,WNW,284,0.0,0.0,86,0.00,,,0.00,0,Wunderground v.1.15,2013-03-07 10:21:00,
2013-03-07 04:25:00,-0.6,-3.8,30.48,WNW,284,0.0,0.0,86,0.00,,,0.00,0,Wunderground v.1.15,2013-03-07 10:25:00,
2013-03-07 04:26:00,-0.6,-3.8,30.48,WNW,284,0.0,0.0,86,0.00,,,0.00,0,Wunderground v.1.15,2013-03-07 10:26:00,
2013-03-07 04:31:00,-0.8,-4.2,30.49,WNW,284,0.0,0.0,85,0.00,,,0.00,0,Wunderground v.1.15,2013-03-07 10:31:00,
2013-03-07 04:33:00,-0.9,-4.3,30.49,WNW,284,0.0,0.0,85,0.00,,,0.00,0,Wunderground v.1.15,2013-03-07 10:33:00,
2013-03-07 04:37:00,-0.8,-4.0,30.49,WNW,284,0.0,0.0,86,0.00,,,0.00,0,Wunderground v.1.15,2013-03-07 10:37:00,
2013-03-07 04:39:00,-0.7,-3.9,30.49,WNW,284,0.0,0.0,86,0.00,,,0.00,0,Wunderground v.1.15,2013-03-07 10:39:00,
2013-03-07 04:40:00,-0.7,-3.9,30.49,WNW,284,0.0,0.0,86,0.00,,,0.00,0,Wunderground v.1.15,2013-03-07 10:40:00,
2013-03-07 04:42:00,-0.8,-4.2,30.49,WNW,284,0.0,0.0,85,0.00,,,0.00,0,Wunderground v.1.15,2013-03-07 10:42:00,
2013-03-07 04:44:00,-0.8,-4.2,30.49,WNW,284,0.0,0.0,85,0.00,,,0.00,0,Wunderground v.1.15,2013-03-07 10:44:00,
2013-03-07 04:47:00,-0.7,-3.9,30.49,WNW,284,0.0,0.0,86,0.00,,,0.00,0,Wunderground v.1.15,2013-03-07 10:47:00,
2013-03-07 04:48:00,-0.7,-3.9,30.49,WNW,284,0.0,0.0,86,0.00,,,0.00,0,Wunderground v.1.15,2013-03-07 10:48:00,
2013-03-07 04:50:00,-0.7,-3.9,30.49,WNW,284,0.0,0.0,86,0.00,,,0.00,0,Wunderground v.1.15,2013-03-07 10:50:00,
2013-03-07 04:55:00,-0.7,-3.9,30.49,WNW,284,0.0,0.0,86,0.00,,,0.00,0,Wunderground v.1.15,2013-03-07 10:55:00,
2013-03-07 04:56:00,-0.7,-3.9,30.49,WNW,284,0.0,0.0,86,0.00,,,0.00,0,Wunderground v.1.15,2013-03-07 10:56:00,
2013-03-07 04:57:00,-0.7,-3.9,30.49,WNW,284,0.0,0.0,86,0.00,,,0.00,0,Wunderground v.1.15,2013-03-07 10:57:00,
2013-03-07 05:00:00,-0.7,-3.9,30.49,WNW,284,0.0,0.0,86,0.00,,,0.00,0,Wunderground v.1.15,2013-03-07 11:00:00,
2013-03-07 05:03:00,-0.8,-4.2,30.49,WNW,284,0.0,0.0,85,0.00,,,0.00,0,Wunderground v.1.15,2013-03-07 11:03:00,
2013-03-07 05:04:00,-0.8,-4.2,30.49,WNW,284,0.0,0.0,85,0.00,,,0.00,0,Wunderground v.1.15,2013-03-07 11:04:00,
2013-03-07 05:07:00,-0.8,-4.0,30.49,WNW,284,0.0,0.0,86,0.00,,,0.00,0,Wunderground v.1.15,2013-03-07 11:07:00,
2013-03-07 05:10:00,-0.9,-4.3,30.49,WNW,284,0.0,0.0,85,0.00,,,0.00,0,Wunderground v.1.15,2013-03-07 11:10:00,
2013-03-07 05:12:00,-0.9,-4.3,30.49,WNW,284,0.0,0.0,85,0.00,,,0.00,0,Wunderground v.1.15,2013-03-07 11:12:00,
2013-03-07 05:16:00,-1.1,-4.5,30.50,WNW,284,0.0,0.0,85,0.00,,,0.00,0,Wunderground v.1.15,2013-03-07 11:16:00,
2013-03-07 05:18:00,-1.2,-4.6,30.49,WNW,284,0.0,0.0,85,0.00,,,0.00,0,Wunderground v.1.15,2013-03-07 11:18:00,
2013-03-07 05:21:00,-1.3,-4.7,30.49,WNW,284,0.0,0.0,85,0.00,,,0.00,0,Wunderground v.1.15,2013-03-07 11:21:00,
2013-03-07 05:24:00,-1.2,-4.4,30.49,WNW,284,0.0,0.0,86,0.00,,,0.00,0,Wunderground v.1.15,2013-03-07 11:24:00,
2013-03-07 05:27:00,-1.1,-4.3,30.49,WNW,284,0.0,0.0,86,0.00,,,0.00,0,Wunderground v.1.15,2013-03-07 11:27:00,
2013-03-07 05:28:00,-1.1,-4.5,30.49,WNW,284,0.0,0.0,85,0.00,,,0.00,0,Wunderground v.1.15,2013-03-07 11:28:00,
2013-03-07 05:31:00,-1.3,-4.7,30.49,WNW,284,0.0,0.0,85,0.00,,,0.00,0,Wunderground v.1.15,2013-03-07 11:31:00,
2013-03-07 05:33:00,-1.4,-4.8,30.49,WNW,284,0.0,0.0,85,0.00,,,0.00,0,Wunderground v.1.15,2013-03-07 11:33:00,
2013-03-07 05:34:00,-1.4,-4.8,30.49,WNW,284,0.0,0.0,85,0.00,,,0.00,0,Wunderground v.1.15,2013-03-07 11:34:00,
2013-03-07 05:36:00,-1.5,-4.9,30.50,WNW,284,0.0,0.0,85,0.00,,,0.00,0,Wunderground v.1.15,2013-03-07 11:36:00,
2013-03-07 05:40:00,-1.7,-5.1,30.50,WNW,284,0.0,0.0,85,0.00,,,0.00,0,Wunderground v.1.15,2013-03-07 11:40:00,
2013-03-07 05:42:00,-1.7,-5.1,30.50,WNW,284,0.0,0.0,85,0.00,,,0.00,0,Wunderground v.1.15,2013-03-07 11:42:00,
2013-03-07 05:45:00,-1.9,-5.3,30.50,WNW,284,0.0,0.0,85,0.00,,,0.00,0,Wunderground v.1.15,2013-03-07 11:45:00,
2013-03-07 05:47:00,-1.9,-5.3,30.50,WNW,284,0.0,0.0,85,0.00,,,0.00,0,Wunderground v.1.15,2013-03-07 11:47:00,
2013-03-07 05:50:00,-1.8,-5.2,30.50,WNW,284,0.0,0.0,85,0.00,,,0.00,0,Wunderground v.1.15,2013-03-07 11:50:00,
2013-03-07 05:52:00,-1.8,-5.2,30.50,WNW,284,0.0,0.0,85,0.00,,,0.00,0,Wunderground v.1.15,2013-03-07 11:52:00,
2013-03-07 05:55:00,-1.6,-5.0,30.50,WNW,284,0.0,0.0,85,0.00,,,0.00,0,Wunderground v.1.15,2013-03-07 11:55:00,
2013-03-07 06:00:00,-1.5,-4.9,30.50,WNW,284,0.0,0.0,85,0.00,,,0.00,0,Wunderground v.1.15,2013-03-07 12:00:00,
2013-03-07 06:01:00,-1.6,-5.0,30.50,WNW,284,0.0,0.0,85,0.00,,,0.00,0,Wunderground v.1.15,2013-03-07 12:01:00,
2013-03-07 06:05:00,-1.9,-5.3,30.50,WNW,284,0.0,0.0,85,0.00,,,0.00,0,Wunderground v.1.15,2013-03-07 12:05:00,
2013-03-07 06:06:00,-1.9,-5.3,30.51,WNW,284,0.0,0.0,85,0.00,,,0.00,0,Wunderground v.1.15,2013-03-07 12:06:00,
2013-03-07 06:10:00,-2.1,-5.5,30.51,WNW,284,0.0,0.0,85,0.00,,,0.00,0,Wunderground v.1.15,2013-03-07 12:10:00,
2013-03-07 06:14:00,-2.2,-5.6,30.51,WNW,284,0.0,0.0,85,0.00,,,0.00,0,Wunderground v.1.15,2013-03-07 12:14:00,
2013-03-07 06:15:00,-2.2,-5.6,30.51,WNW,284,0.0,0.0,85,0.00,,,0.00,0,Wunderground v.1.15,2013-03-07 12:15:00,
2013-03-07 06:17:00,-2.2,-5.6,30.51,WNW,284,0.0,0.0,85,0.00,,,0.00,0,Wunderground v.1.15,2013-03-07 12:17:00,
2013-03-07 06:20:00,-2.2,-5.6,30.51,WNW,284,0.0,0.0,85,0.00,,,0.00,0,Wunderground v.1.15,2013-03-07 12:20:00,
2013-03-07 06:22:00,-2.2,-5.6,30.51,WNW,284,0.0,0.0,85,0.00,,,0.00,0,Wunderground v.1.15,2013-03-07 12:22:00,
2013-03-07 06:24:00,-2.2,-5.6,30.52,WNW,284,0.0,0.0,85,0.00,,,0.00,0,Wunderground v.1.15,2013-03-07 12:24:00,
2013-03-07 06:26:00,-2.2,-5.6,30.52,WNW,284,0.0,0.0,85,0.00,,,0.00,0,Wunderground v.1.15,2013-03-07 12:26:00,
2013-03-07 06:28:00,-2.3,-5.7,30.52,WNW,284,0.0,0.0,85,0.00,,,0.00,5,Wunderground v.1.15,2013-03-07 12:28:00,
2013-03-07 06:32:00,-2.3,-5.7,30.51,WNW,284,0.0,0.0,85,0.00,,,0.00,7,Wunderground v.1.15,2013-03-07 12:32:00,
2013-03-07 06:34:00,-2.2,-5.6,30.52,WNW,284,0.0,0.0,85,0.00,,,0.00,9,Wunderground v.1.15,2013-03-07 12:34:00,
2013-03-07 06:37:00,-2.3,-5.7,30.51,WNW,284,0.0,0.0,85,0.00,,,0.00,11,Wunderground v.1.15,2013-03-07 12:37:00,
2013-03-07 06:41:00,-2.3,-5.7,30.52,WNW,284,0.0,0.0,85,0.00,,,0.00,14,Wunderground v.1.15,2013-03-07 12:41:00,
2013-03-07 06:43:00,-2.4,-5.8,30.52,WNW,284,0.0,0.0,85,0.00,,,0.00,19,Wunderground v.1.15,2013-03-07 12:43:00,
2013-03-07 06:48:00,-2.4,-5.8,30.52,WNW,284,0.0,0.0,85,0.00,,,0.00,25,Wunderground v.1.15,2013-03-07 12:48:00,
2013-03-07 06:51:00,-2.3,-5.7,30.52,WNW,284,0.0,0.0,85,0.00,,,0.00,28,Wunderground v.1.15,2013-03-07 12:51:00,
2013-03-07 06:52:00,-2.2,-5.6,30.52,WNW,284,0.0,0.0,85,0.00,,,0.00,30,Wunderground v.1.15,2013-03-07 12:52:00,
2013-03-07 06:56:00,-1.7,-5.1,30.52,WNW,284,0.0,0.0,85,0.00,,,0.00,35,Wunderground v.1.15,2013-03-07 12:56:00,
2013-03-07 06:58:00,-1.6,-5.0,30.52,WNW,284,0.0,0.0,85,0.00,,,0.00,40,Wunderground v.1.15,2013-03-07 12:58:00,
2013-03-07 07:02:00,-1.5,-4.9,30.52,WNW,284,0.0,0.0,85,0.00,,,0.00,49,Wunderground v.1.15,2013-03-07 13:02:00,
2013-03-07 07:03:00,-1.4,-4.8,30.52,WNW,284,0.0,0.0,85,0.00,,,0.00,53,Wunderground v.1.15,2013-03-07 13:03:00,
2013-03-07 07:05:00,-1.3,-4.5,30.52,WNW,284,0.0,0.0,86,0.00,,,0.00,56,Wunderground v.1.15,2013-03-07 13:05:00,
2013-03-07 07:09:00,-1.1,-4.3,30.52,WNW,284,0.0,0.0,86,0.00,,,0.00,67,Wunderground v.1.15,2013-03-07 13:09:00,
2013-03-07 07:11:00,-1.2,-4.6,30.52,WNW,284,0.0,0.0,85,0.00,,,0.00,69,Wunderground v.1.15,2013-03-07 13:11:00,
2013-03-07 07:14:00,-1.2,-4.6,30.53,WNW,284,0.0,0.0,85,0.00,,,0.00,81,Wunderground v.1.15,2013-03-07 13:14:00,
2013-03-07 07:15:00,-1.1,-4.5,30.53,WNW,284,0.0,0.0,85,0.00,,,0.00,83,Wunderground v.1.15,2013-03-07 13:15:00,
2013-03-07 07:16:00,-1.1,-4.5,30.53,WNW,284,0.0,0.0,85,0.00,,,0.00,86,Wunderground v.1.15,2013-03-07 13:16:00,
2013-03-07 07:19:00,-1.0,-4.4,30.53,WNW,284,0.0,0.0,85,0.00,,,0.00,97,Wunderground v.1.15,2013-03-07 13:19:00,
2013-03-07 07:23:00,-0.8,-4.2,30.53,WNW,284,0.0,0.0,85,0.00,,,0.00,109,Wunderground v.1.15,2013-03-07 13:23:00,
2013-03-07 07:25:00,-0.7,-4.1,30.53,WNW,284,0.0,0.0,85,0.00,,,0.00,114,Wunderground v.1.15,2013-03-07 13:25:00,
2013-03-07 07:26:00,-0.7,-3.9,30.53,WNW,284,0.0,0.0,86,0.00,,,0.00,121,Wunderground v.1.15,2013-03-07 13:26:00,
2013-03-07 07:30:00,-0.4,-3.8,30.53,WNW,284,0.0,0.0,85,0.00,,,0.00,135,Wunderground v.1.15,2013-03-07 13:30:00,
2013-03-07 07:32:00,-0.3,-3.7,30.53,WNW,284,0.0,0.0,85,0.00,,,0.00,142,Wunderground v.1.15,2013-03-07 13:32:00,
2013-03-07 07:36:00,0.1,-3.1,30.53,WNW,284,0.0,0.0,86,0.00,,,0.00,163,Wunderground v.1.15,2013-03-07 13:36:00,
2013-03-07 07:37:00,0.2,-3.0,30.53,WNW,284,0.0,0.0,86,0.00,,,0.00,167,Wunderground v.1.15,2013-03-07 13:37:00,
2013-03-07 07:38:00,0.4,-2.8,30.53,WNW,284,0.0,0.0,86,0.00,,,0.00,176,Wunderground v.1.15,2013-03-07 13:38:00,
2013-03-07 07:42:00,1.0,-2.2,30.53,WNW,284,0.0,0.0,86,0.00,,,0.00,192,Wunderground v.1.15,2013-03-07 13:42:00,
2013-03-07 07:45:00,1.1,-2.1,30.53,WNW,284,0.0,0.0,86,0.00,,,0.00,207,Wunderground v.1.15,2013-03-07 13:45:00,
2013-03-07 07:46:00,1.1,-2.1,30.53,WNW,284,0.0,0.0,86,0.00,,,0.00,207,Wunderground v.1.15,2013-03-07 13:46:00,
2013-03-07 07:47:00,1.1,-2.1,30.53,WNW,284,0.0,0.0,86,0.00,,,0.00,207,Wunderground v.1.15,2013-03-07 13:47:00,
2013-03-07 07:50:00,1.3,-1.9,30.53,WNW,284,0.0,0.0,86,0.00,,,0.00,213,Wunderground v.1.15,2013-03-07 13:50:00,
2013-03-07 07:53:00,1.8,-1.4,30.53,WNW,284,0.0,0.0,86,0.00,,,0.00,190,Wunderground v.1.15,2013-03-07 13:53:00,
2013-03-07 07:56:00,2.2,-1.0,30.53,WNW,284,0.0,0.0,86,0.00,,,0.00,236,Wunderground v.1.15,2013-03-07 13:56:00,
2013-03-07 07:58:00,2.2,-1.0,30.53,WNW,284,0.0,0.0,86,0.00,,,0.00,237,Wunderground v.1.15,2013-03-07 13:58:00,
2013-03-07 08:01:00,2.4,-0.8,30.53,WNW,284,0.0,0.0,86,0.00,,,0.00,260,Wunderground v.1.15,2013-03-07 14:01:00,
2013-03-07 08:03:00,2.9,-0.3,30.54,WNW,284,0.0,0.0,86,0.00,,,0.00,248,Wunderground v.1.15,2013-03-07 14:03:00,
2013-03-07 08:07:00,3.3,0.1,30.54,WNW,284,0.0,0.0,86,0.00,,,0.00,294,Wunderground v.1.15,2013-03-07 14:07:00,
2013-03-07 08:11:00,3.4,0.2,30.54,WNW,284,0.0,0.0,86,0.00,,,0.00,316,Wunderground v.1.15,2013-03-07 14:11:00,
2013-03-07 08:13:00,3.6,0.4,30.54,WNW,284,0.0,0.0,86,0.00,,,0.00,313,Wunderground v.1.15,2013-03-07 14:13:00,
2013-03-07 08:16:00,3.8,0.5,30.54,WNW,284,0.0,0.0,86,0.00,,,0.00,325,Wunderground v.1.15,2013-03-07 14:16:00,
2013-03-07 08:19:00,4.2,0.9,30.54,WNW,284,0.0,1.0,86,0.00,,,0.00,320,Wunderground v.1.15,2013-03-07 14:19:00,
2013-03-07 08:22:00,4.5,1.2,30.54,WNW,284,0.0,0.0,86,0.00,,,0.00,316,Wunderground v.1.15,2013-03-07 14:22:00,
2013-03-07 08:27:00,5.1,1.8,30.54,WNW,284,0.0,0.0,86,0.00,,,0.00,311,Wunderground v.1.15,2013-03-07 14:27:00,
2013-03-07 08:30:00,5.6,2.3,30.53,WNW,284,0.0,0.0,86,0.00,,,0.00,367,Wunderground v.1.15,2013-03-07 14:30:00,
2013-03-07 08:33:00,6.2,2.9,30.53,WNW,284,0.0,0.0,86,0.00,,,0.00,357,Wunderground v.1.15,2013-03-07 14:33:00,
2013-03-07 08:36:00,6.7,3.4,30.53,WNW,284,0.0,0.0,86,0.00,,,0.00,311,Wunderground v.1.15,2013-03-07 14:36:00,
2013-03-07 08:38:00,7.1,3.8,30.53,WNW,284,0.0,0.0,86,0.00,,,0.00,306,Wunderground v.1.15,2013-03-07 14:38:00,
2013-03-07 08:40:00,7.4,4.1,30.53,WNW,284,0.0,0.0,86,0.00,,,0.00,341,Wunderground v.1.15,2013-03-07 14:40:00,
2013-03-07 08:41:00,7.7,4.4,30.53,WNW,284,0.0,0.0,86,0.00,,,0.00,353,Wunderground v.1.15,2013-03-07 14:41:00,
2013-03-07 08:44:00,8.0,4.4,30.54,WNW,284,0.0,0.0,85,0.00,,,0.00,355,Wunderground v.1.15,2013-03-07 14:44:00,
2013-03-07 08:46:00,8.1,4.3,30.54,WNW,284,0.0,0.0,84,0.00,,,0.00,355,Wunderground v.1.15,2013-03-07 14:46:00,
2013-03-07 08:49:00,8.5,4.7,30.54,WNW,284,0.0,1.0,84,0.00,,,0.00,311,Wunderground v.1.15,2013-03-07 14:49:00,
2013-03-07 08:53:00,9.0,5.1,30.53,WNW,284,0.0,0.0,84,0.00,,,0.00,350,Wunderground v.1.15,2013-03-07 14:53:00,
2013-03-07 08:57:00,9.6,5.5,30.53,WNW,284,0.0,0.0,83,0.00,,,0.00,364,Wunderground v.1.15,2013-03-07 14:57:00,
2013-03-07 08:59:00,10.0,5.9,30.53,WNW,284,0.0,0.0,83,0.00,,,0.00,403,Wunderground v.1.15,2013-03-07 14:59:00,
2013-03-07 09:02:00,10.7,6.6,30.53,WNW,284,0.0,0.0,83,0.00,,,0.00,424,Wunderground v.1.15,2013-03-07 15:02:00,
2013-03-07 09:04:00,10.9,6.5,30.53,WNW,284,0.0,0.0,82,0.00,,,0.00,425,Wunderground v.1.15,2013-03-07 15:04:00,
2013-03-07 09:07:00,11.8,7.4,30.53,WNW,284,0.0,0.0,82,0.00,,,0.00,441,Wunderground v.1.15,2013-03-07 15:07:00,
2013-03-07 09:10:00,12.4,7.7,30.53,WNW,284,0.0,0.0,81,0.00,,,0.00,438,Wunderground v.1.15,2013-03-07 15:10:00,
2013-03-07 09:14:00,12.4,7.4,30.52,WNW,284,0.0,0.0,80,0.00,,,0.00,478,Wunderground v.1.15,2013-03-07 15:14:00,
2013-03-07 09:15:00,12.6,7.6,30.52,WNW,284,0.0,0.0,80,0.00,,,0.00,466,Wunderground v.1.15,2013-03-07 15:15:00,
2013-03-07 09:18:00,13.1,8.1,30.52,WNW,284,0.0,0.0,80,0.00,,,0.00,469,Wunderground v.1.15,2013-03-07 15:18:00,
2013-03-07 09:21:00,13.7,8.7,30.52,WNW,284,0.0,0.0,80,0.00,,,0.00,475,Wunderground v.1.15,2013-03-07 15:21:00,
2013-03-07 09:23:00,14.1,9.1,30.52,WNW,284,0.0,0.0,80,0.00,,,0.00,446,Wunderground v.1.15,2013-03-07 15:23:00,
2013-03-07 09:24:00,14.2,9.2,30.52,WNW,284,0.0,0.0,80,0.00,,,0.00,466,Wunderground v.1.15,2013-03-07 15:24:00,
2013-03-07 09:26:00,14.5,9.5,30.52,WNW,284,0.0,0.0,80,0.00,,,0.00,512,Wunderground v.1.15,2013-03-07 15:26:00,
2013-03-07 09:29:00,15.1,10.0,30.52,WNW,284,0.0,0.0,80,0.00,,,0.00,534,Wunderground v.1.15,2013-03-07 15:29:00,
2013-03-07 09:31:00,15.4,10.3,30.52,WNW,284,0.0,0.0,80,0.00,,,0.00,554,Wunderground v.1.15,2013-03-07 15:31:00,
2013-03-07 09:32:00,15.5,10.4,30.52,WNW,284,0.0,0.0,80,0.00,,,0.00,559,Wunderground v.1.15,2013-03-07 15:32:00,
2013-03-07 09:35:00,16.0,10.9,30.52,WNW,284,0.0,0.0,80,0.00,,,0.00,584,Wunderground v.1.15,2013-03-07 15:35:00,
2013-03-07 09:36:00,16.3,11.2,30.52,WNW,284,0.0,0.0,80,0.00,,,0.00,575,Wunderground v.1.15,2013-03-07 15:36:00,
2013-03-07 09:41:00,17.2,11.8,30.52,WNW,284,0.0,0.0,79,0.00,,,0.00,571,Wunderground v.1.15,2013-03-07 15:41:00,
2013-03-07 09:43:00,17.7,12.3,30.52,WNW,284,0.0,0.0,79,0.00,,,0.00,559,Wunderground v.1.15,2013-03-07 15:43:00,
2013-03-07 09:45:00,18.1,12.7,30.52,WNW,284,0.0,0.0,79,0.00,,,0.00,497,Wunderground v.1.15,2013-03-07 15:45:00,
2013-03-07 09:46:00,18.4,12.7,30.52,WNW,284,0.0,0.0,78,0.00,,,0.00,482,Wunderground v.1.15,2013-03-07 15:46:00,
2013-03-07 09:48:00,18.9,12.9,30.52,WNW,284,0.0,0.0,77,0.00,,,0.00,457,Wunderground v.1.15,2013-03-07 15:48:00,
2013-03-07 09:50:00,18.9,12.9,30.53,WNW,284,0.0,0.0,77,0.00,,,0.00,494,Wunderground v.1.15,2013-03-07 15:50:00,
2013-03-07 09:53:00,19.4,13.4,30.53,WNW,284,0.0,0.0,77,0.00,,,0.00,490,Wunderground v.1.15,2013-03-07 15:53:00,
2013-03-07 09:55:00,19.6,13.6,30.53,WNW,284,0.0,0.0,77,0.00,,,0.00,424,Wunderground v.1.15,2013-03-07 15:55:00,
2013-03-07 09:58:00,19.9,13.9,30.53,WNW,284,0.0,0.0,77,0.00,,,0.00,496,Wunderground v.1.15,2013-03-07 15:58:00,
2013-03-07 10:00:00,20.0,13.6,30.53,WNW,284,0.0,0.0,76,0.00,,,0.00,487,Wunderground v.1.15,2013-03-07 16:00:00,
2013-03-07 10:01:00,20.2,13.8,30.53,WNW,284,0.0,0.0,76,0.00,,,0.00,504,Wunderground v.1.15,2013-03-07 16:01:00,
2013-03-07 10:06:00,21.1,14.7,30.53,WNW,284,0.0,0.0,76,0.00,,,0.00,601,Wunderground v.1.15,2013-03-07 16:06:00,
2013-03-07 10:07:00,21.2,14.8,30.53,WNW,284,0.0,0.0,76,0.00,,,0.00,606,Wunderground v.1.15,2013-03-07 16:07:00,
2013-03-07 10:10:00,21.7,15.0,30.53,WNW,284,0.0,0.0,75,0.00,,,0.00,555,Wunderground v.1.15,2013-03-07 16:10:00,
2013-03-07 10:12:00,22.0,15.0,30.53,WNW,284,0.0,1.0,74,0.00,,,0.00,563,Wunderground v.1.15,2013-03-07 16:12:00,
2013-03-07 10:13:00,22.2,15.2,30.53,WNW,284,0.0,1.0,74,0.00,,,0.00,570,Wunderground v.1.15,2013-03-07 16:13:00,
2013-03-07 10:16:00,22.6,15.2,30.53,WNW,284,0.0,1.0,73,0.00,,,0.00,585,Wunderground v.1.15,2013-03-07 16:16:00,
2013-03-07 10:17:00,22.7,15.3,30.53,WNW,284,0.0,1.0,73,0.00,,,0.00,580,Wunderground v.1.15,2013-03-07 16:17:00,
2013-03-07 10:22:00,23.7,16.3,30.52,WNW,284,0.0,0.0,73,0.00,,,0.00,619,Wunderground v.1.15,2013-03-07 16:22:00,
2013-03-07 10:23:00,23.8,16.4,30.52,WNW,284,0.0,0.0,73,0.00,,,0.00,592,Wunderground v.1.15,2013-03-07 16:23:00,
2013-03-07 10:26:00,24.2,16.5,30.52,WNW,284,0.0,0.0,72,0.00,,,0.00,624,Wunderground v.1.15,2013-03-07 16:26:00,
2013-03-07 10:28:00,24.5,16.8,30.52,WNW,284,0.0,0.0,72,0.00,,,0.00,629,Wunderground v.1.15,2013-03-07 16:28:00,
2013-03-07 10:29:00,24.7,16.6,30.52,WNW,284,0.0,0.0,71,0.00,,,0.00,628,Wunderground v.1.15,2013-03-07 16:29:00,
2013-03-07 10:31:00,25.0,16.9,30.52,WNW,284,0.0,0.0,71,0.00,,,0.00,636,Wunderground v.1.15,2013-03-07 16:31:00,
2013-03-07 10:36:00,25.4,17.0,30.52,WNW,284,1.0,2.0,70,0.00,,,0.00,612,Wunderground v.1.15,2013-03-07 16:36:00,
2013-03-07 10:38:00,25.6,17.2,30.52,WNW,284,1.0,2.0,70,0.00,,,0.00,633,Wunderground v.1.15,2013-03-07 16:38:00,
2013-03-07 10:39:00,25.8,17.4,30.52,WNW,284,1.0,2.0,70,0.00,,,0.00,663,Wunderground v.1.15,2013-03-07 16:39:00,
2013-03-07 10:44:00,26.3,17.5,30.52,WNW,284,1.0,1.0,69,0.00,,,0.00,687,Wunderground v.1.15,2013-03-07 16:44:00,
2013-03-07 10:45:00,26.4,17.6,30.52,WNW,284,1.0,1.0,69,0.00,,,0.00,668,Wunderground v.1.15,2013-03-07 16:45:00,
2013-03-07 10:48:00,26.9,17.7,30.52,WNW,284,0.0,1.0,68,0.00,,,0.00,682,Wunderground v.1.15,2013-03-07 16:48:00,
2013-03-07 10:49:00,26.9,17.7,30.52,WNW,284,0.0,1.0,68,0.00,,,0.00,679,Wunderground v.1.15,2013-03-07 16:49:00,
2013-03-07 10:50:00,27.1,17.9,30.52,WNW,284,0.0,0.0,68,0.00,,,0.00,677,Wunderground v.1.15,2013-03-07 16:50:00,
2013-03-07 10:55:00,27.9,18.0,30.52,WNW,284,0.0,2.0,66,0.00,,,0.00,668,Wunderground v.1.15,2013-03-07 16:55:00,
2013-03-07 10:56:00,28.0,18.1,30.52,WNW,284,0.0,2.0,66,0.00,,,0.00,670,Wunderground v.1.15,2013-03-07 16:56:00,
2013-03-07 10:59:00,28.2,18.6,30.52,WNW,284,0.0,2.0,67,0.00,,,0.00,668,Wunderground v.1.15,2013-03-07 16:59:00,
2013-03-07 11:01:00,28.4,18.5,30.51,WNW,284,0.0,0.0,66,0.00,,,0.00,659,Wunderground v.1.15,2013-03-07 17:01:00,
2013-03-07 11:04:00,28.7,18.8,30.51,WNW,284,0.0,0.0,66,0.00,,,0.00,671,Wunderground v.1.15,2013-03-07 17:04:00,
2013-03-07 11:06:00,29.3,19.0,30.51,WNW,284,0.0,0.0,65,0.00,,,0.00,675,Wunderground v.1.15,2013-03-07 17:06:00,
2013-03-07 11:07:00,29.5,19.2,30.51,WNW,284,0.0,0.0,65,0.00,,,0.00,675,Wunderground v.1.15,2013-03-07 17:07:00,
2013-03-07 11:10:00,29.5,18.8,30.51,WNW,284,0.0,0.0,64,0.00,,,0.00,680,Wunderground v.1.15,2013-03-07 17:10:00,
2013-03-07 11:12:00,29.4,18.7,30.52,WNW,284,0.0,2.0,64,0.00,,,0.00,684,Wunderground v.1.15,2013-03-07 17:12:00,
2013-03-07 11:13:00,29.4,18.3,30.52,WNW,284,0.0,2.0,63,0.00,,,0.00,686,Wunderground v.1.15,2013-03-07 17:13:00,
2013-03-07 11:17:00,29.5,18.4,30.52,WNW,284,0.0,2.0,63,0.00,,,0.00,687,Wunderground v.1.15,2013-03-07 17:17:00,
2013-03-07 11:19:00,29.6,18.5,30.52,WNW,284,1.0,3.0,63,0.00,,,0.00,687,Wunderground v.1.15,2013-03-07 17:19:00,
2013-03-07 11:22:00,29.8,18.4,30.51,WNW,284,1.0,3.0,62,0.00,,,0.00,694,Wunderground v.1.15,2013-03-07 17:22:00,
2013-03-07 11:23:00,29.9,18.1,30.51,WNW,284,1.0,3.0,61,0.00,,,0.00,689,Wunderground v.1.15,2013-03-07 17:23:00,
2013-03-07 11:26:00,30.0,18.2,30.51,WNW,284,1.0,3.0,61,0.00,,,0.00,691,Wunderground v.1.15,2013-03-07 17:26:00,
2013-03-07 11:29:00,30.4,18.9,30.51,WNW,284,1.0,3.0,62,0.00,,,0.00,715,Wunderground v.1.15,2013-03-07 17:29:00,
2013-03-07 11:32:00,30.5,18.6,30.51,WNW,284,1.0,1.0,61,0.00,,,0.00,675,Wunderground v.1.15,2013-03-07 17:32:00,
2013-03-07 11:36:00,30.7,18.4,30.50,WNW,284,0.0,1.0,60,0.00,,,0.00,656,Wunderground v.1.15,2013-03-07 17:36:00,
2013-03-07 11:37:00,30.7,18.4,30.50,WNW,284,0.0,3.0,60,0.00,,,0.00,647,Wunderground v.1.15,2013-03-07 17:37:00,
2013-03-07 11:41:00,30.7,18.4,30.51,WNW,284,1.0,2.0,60,0.00,,,0.00,642,Wunderground v.1.15,2013-03-07 17:41:00,
2013-03-07 11:42:00,30.9,18.6,30.50,WNW,284,1.0,2.0,60,0.00,,,0.00,661,Wunderground v.1.15,2013-03-07 17:42:00,
2013-03-07 11:44:00,31.1,18.4,30.50,WNW,284,1.0,2.0,59,0.00,,,0.00,656,Wunderground v.1.15,2013-03-07 17:44:00,
2013-03-07 11:47:00,31.3,18.6,30.50,WNW,284,1.0,2.0,59,0.00,,,0.00,707,Wunderground v.1.15,2013-03-07 17:47:00,
2013-03-07 11:49:00,31.3,18.6,30.50,WNW,284,0.0,2.0,59,0.00,,,0.00,680,Wunderground v.1.15,2013-03-07 17:49:00,
2013-03-07 11:52:00,31.4,18.7,30.50,SW,229,1.0,3.0,59,0.00,,,0.00,701,Wunderground v.1.15,2013-03-07 17:52:00,
2013-03-07 11:54:00,31.3,18.6,30.50,SW,229,1.0,3.0,59,0.00,,,0.00,715,Wunderground v.1.15,2013-03-07 17:54:00,
2013-03-07 11:58:00,31.6,18.9,30.50,SW,229,2.0,3.0,59,0.00,,,0.00,715,Wunderground v.1.15,2013-03-07 17:58:00,
2013-03-07 12:00:00,31.6,18.5,30.50,SW,229,2.0,2.0,58,0.00,,,0.00,729,Wunderground v.1.15,2013-03-07 18:00:00,
2013-03-07 12:02:00,31.8,19.1,30.50,SW,229,2.0,4.0,59,0.00,,,0.00,722,Wunderground v.1.15,2013-03-07 18:02:00,
2013-03-07 12:04:00,31.9,18.8,30.50,SW,229,2.0,4.0,58,0.00,,,0.00,703,Wunderground v.1.15,2013-03-07 18:04:00,
2013-03-07 12:09:00,32.1,19.0,30.50,SW,229,2.0,4.0,58,0.00,,,0.00,698,Wunderground v.1.15,2013-03-07 18:09:00,
2013-03-07 12:10:00,32.1,18.6,30.50,SW,229,2.0,2.0,57,0.00,,,0.00,708,Wunderground v.1.15,2013-03-07 18:10:00,
2013-03-07 12:11:00,32.2,18.7,30.50,SW,229,2.0,5.0,57,0.00,,,0.00,701,Wunderground v.1.15,2013-03-07 18:11:00,
2013-03-07 12:16:00,32.6,19.8,30.50,SW,229,2.0,5.0,59,0.00,,,0.00,742,Wunderground v.1.15,2013-03-07 18:16:00,
2013-03-07 12:17:00,32.6,19.0,30.50,SW,229,2.0,5.0,57,0.00,,,0.00,744,Wunderground v.1.15,2013-03-07 18:17:00,
2013-03-07 12:21:00,32.8,19.2,30.50,SW,229,3.0,3.0,57,0.00,,,0.00,747,Wunderground v.1.15,2013-03-07 18:21:00,
2013-03-07 12:23:00,32.9,18.9,30.50,SW,235,3.0,4.0,56,0.00,,,0.00,724,Wunderground v.1.15,2013-03-07 18:23:00,
2013-03-07 12:25:00,32.9,18.9,30.50,SW,235,3.0,4.0,56,0.00,,,0.00,728,Wunderground v.1.15,2013-03-07 18:25:00,
2013-03-07 12:26:00,32.8,18.4,30.50,SW,235,3.0,4.0,55,0.00,,,0.00,719,Wunderground v.1.15,2013-03-07 18:26:00,
2013-03-07 12:30:00,32.9,18.9,30.50,SSW,207,3.0,3.0,56,0.00,,,0.00,751,Wunderground v.1.15,2013-03-07 18:30:00,
2013-03-07 12:32:00,33.0,18.6,30.50,SSW,207,3.0,3.0,55,0.00,,,0.00,712,Wunderground v.1.15,2013-03-07 18:32:00,
2013-03-07 12:37:00,33.3,18.9,30.50,SSW,207,2.0,3.0,55,0.00,,,0.00,729,Wunderground v.1.15,2013-03-07 18:37:00,
2013-03-07 12:40:00,33.4,18.9,30.50,SSW,207,2.0,2.0,55,0.00,,,0.00,715,Wunderground v.1.15,2013-03-07 18:40:00,
2013-03-07 12:45:00,33.5,19.0,30.50,SSW,207,2.0,3.0,55,0.00,,,0.00,689,Wunderground v.1.15,2013-03-07 18:45:00,
2013-03-07 12:48:00,33.4,18.5,30.50,SSW,207,1.0,3.0,54,0.00,,,0.00,677,Wunderground v.1.15,2013-03-07 18:48:00,
2013-03-07 12:52:00,33.7,18.8,30.50,SSW,207,2.0,3.0,54,0.00,,,0.00,693,Wunderground v.1.15,2013-03-07 18:52:00,
2013-03-07 12:53:00,33.6,18.7,30.50,SSW,207,2.0,3.0,54,0.00,,,0.00,650,Wunderground v.1.15,2013-03-07 18:53:00,
2013-03-07 12:57:00,33.8,19.3,30.50,SSW,207,2.0,3.0,55,0.00,,,0.00,668,Wunderground v.1.15,2013-03-07 18:57:00,
2013-03-07 12:58:00,33.7,18.8,30.50,SSW,207,2.0,3.0,54,0.00,,,0.00,638,Wunderground v.1.15,2013-03-07 18:58:00,
2013-03-07 13:02:00,34.0,19.5,30.50,SSW,207,2.0,2.0,55,0.00,,,0.00,680,Wunderground v.1.15,2013-03-07 19:02:00,
2013-03-07 13:05:00,33.9,18.6,30.50,SSW,207,1.0,2.0,53,0.00,,,0.00,673,Wunderground v.1.15,2013-03-07 19:05:00,
2013-03-07 13:07:00,34.1,18.7,30.50,SSW,207,0.0,2.0,53,0.00,,,0.00,673,Wunderground v.1.15,2013-03-07 19:07:00,
2013-03-07 13:08:00,34.0,18.6,30.50,SSW,207,0.0,2.0,53,0.00,,,0.00,663,Wunderground v.1.15,2013-03-07 19:08:00,
2013-03-07 13:10:00,34.1,19.2,30.50,SW,217,1.0,2.0,54,0.00,,,0.00,612,Wunderground v.1.15,2013-03-07 19:10:00,
2013-03-07 13:12:00,34.0,18.6,30.50,NNW,327,1.0,2.0,53,0.00,,,0.00,531,Wunderground v.1.15,2013-03-07 19:12:00,
2013-03-07 13:14:00,34.1,18.7,30.50,NNW,327,1.0,2.0,53,0.00,,,0.00,497,Wunderground v.1.15,2013-03-07 19:14:00,
2013-03-07 13:16:00,34.1,18.7,30.50,NNW,327,1.0,2.0,53,0.00,,,0.00,497,Wunderground v.1.15,2013-03-07 19:16:00,
2013-03-07 13:18:00,33.9,18.6,30.50,NNW,327,1.0,2.0,53,0.00,,,0.00,508,Wunderground v.1.15,2013-03-07 19:18:00,
2013-03-07 13:21:00,34.1,18.7,30.50,NNW,327,1.0,2.0,53,0.00,,,0.00,577,Wunderground v.1.15,2013-03-07 19:21:00,
2013-03-07 13:23:00,34.2,19.3,30.49,NNW,327,1.0,2.0,54,0.00,,,0.00,682,Wunderground v.1.15,2013-03-07 19:23:00,
2013-03-07 13:26:00,34.7,19.3,30.49,NNW,327,1.0,2.0,53,0.00,,,0.00,612,Wunderground v.1.15,2013-03-07 19:26:00,
2013-03-07 13:28:00,34.7,18.9,30.49,WNW,292,1.0,2.0,52,0.00,,,0.00,522,Wunderground v.1.15,2013-03-07 19:28:00,
2013-03-07 13:32:00,34.5,18.7,30.49,WNW,292,1.0,2.0,52,0.00,,,0.00,561,Wunderground v.1.15,2013-03-07 19:32:00,
2013-03-07 13:33:00,34.4,18.6,30.49,WNW,292,1.0,2.0,52,0.00,,,0.00,519,Wunderground v.1.15,2013-03-07 19:33:00,
2013-03-07 13:34:00,34.3,18.5,30.49,WNW,292,1.0,2.0,52,0.00,,,0.00,519,Wunderground v.1.15,2013-03-07 19:34:00,
2013-03-07 13:39:00,34.6,19.6,30.49,WNW,292,1.0,3.0,54,0.00,,,0.00,578,Wunderground v.1.15,2013-03-07 19:39:00,
2013-03-07 13:40:00,34.7,19.3,30.49,WSW,253,1.0,3.0,53,0.00,,,0.00,580,Wunderground v.1.15,2013-03-07 19:40:00,
2013-03-07 13:43:00,34.6,18.8,30.49,WSW,253,1.0,3.0,52,0.00,,,0.00,605,Wunderground v.1.15,2013-03-07 19:43:00,
2013-03-07 13:46:00,34.8,19.4,30.49,NW,310,1.0,3.0,53,0.00,,,0.00,605,Wunderground v.1.15,2013-03-07 19:46:00,
2013-03-07 13:52:00,34.9,18.6,30.48,WSW,252,2.0,3.0,51,0.00,,,0.00,533,Wunderground v.1.15,2013-03-07 19:52:00,
2013-03-07 13:53:00,34.9,18.6,30.48,WSW,252,2.0,3.0,51,0.00,,,0.00,512,Wunderground v.1.15,2013-03-07 19:53:00,
2013-03-07 13:56:00,34.9,18.6,30.48,West,261,2.0,4.0,51,0.00,,,0.00,512,Wunderground v.1.15,2013-03-07 19:56:00,
2013-03-07 13:58:00,34.8,18.5,30.48,NW,309,2.0,4.0,51,0.00,,,0.00,561,Wunderground v.1.15,2013-03-07 19:58:00,
2013-03-07 14:02:00,34.8,18.5,30.48,NNW,333,2.0,4.0,51,0.00,,,0.00,652,Wunderground v.1.15,2013-03-07 20:02:00,
2013-03-07 14:03:00,34.8,18.5,30.48,NNW,333,2.0,4.0,51,0.00,,,0.00,656,Wunderground v.1.15,2013-03-07 20:03:00,
2013-03-07 14:04:00,35.0,18.7,30.48,NNW,333,2.0,4.0,51,0.00,,,0.00,652,Wunderground v.1.15,2013-03-07 20:04:00,
2013-03-07 14:07:00,35.4,19.5,30.48,NNW,339,2.0,4.0,52,0.00,,,0.00,650,Wunderground v.1.15,2013-03-07 20:07:00,
2013-03-07 14:08:00,35.4,19.5,30.48,NNW,339,2.0,4.0,52,0.00,,,0.00,666,Wunderground v.1.15,2013-03-07 20:08:00,
2013-03-07 14:11:00,35.4,19.0,30.48,NNW,339,1.0,2.0,51,0.00,,,0.00,550,Wunderground v.1.15,2013-03-07 20:11:00,
2013-03-07 14:12:00,35.4,19.9,30.47,NNW,339,1.0,2.0,53,0.00,,,0.00,568,Wunderground v.1.15,2013-03-07 20:12:00,
2013-03-07 14:13:00,35.4,19.5,30.47,NNW,339,1.0,2.0,52,0.00,,,0.00,575,Wunderground v.1.15,2013-03-07 20:13:00,
2013-03-07 14:17:00,35.4,19.9,30.47,NNW,344,0.0,2.0,53,0.00,,,0.00,527,Wunderground v.1.15,2013-03-07 20:17:00,
2013-03-07 14:20:00,35.3,19.4,30.47,NNW,344,0.0,0.0,52,0.00,,,0.00,608,Wunderground v.1.15,2013-03-07 20:20:00,
2013-03-07 14:25:00,35.7,20.2,30.47,NNE,19,1.0,5.0,53,0.00,,,0.00,563,Wunderground v.1.15,2013-03-07 20:25:00,
2013-03-07 14:26:00,35.9,20.0,30.47,NNE,26,1.0,6.0,52,0.00,,,0.00,522,Wunderground v.1.15,2013-03-07 20:26:00,
2013-03-07 14:28:00,35.8,19.9,30.47,NNE,18,2.0,6.0,52,0.00,,,0.00,432,Wunderground v.1.15,2013-03-07 20:28:00,
2013-03-07 14:32:00,35.5,19.6,30.47,NE,42,3.0,4.0,52,0.00,,,0.00,353,Wunderground v.1.15,2013-03-07 20:32:00,
2013-03-07 14:33:00,35.3,19.4,30.47,NNE,33,4.0,4.0,52,0.00,,,0.00,424,Wunderground v.1.15,2013-03-07 20:33:00,
2013-03-07 14:34:00,35.3,19.4,30.47,NNE,26,4.0,4.0,52,0.00,,,0.00,424,Wunderground v.1.15,2013-03-07 20:34:00,
2013-03-07 14:38:00,35.5,19.1,30.47,NE,56,3.0,4.0,51,0.00,,,0.00,492,Wunderground v.1.15,2013-03-07 20:38:00,
2013-03-07 14:40:00,35.4,18.6,30.47,NNE,32,2.0,4.0,50,0.00,,,0.00,478,Wunderground v.1.15,2013-03-07 20:40:00,
2013-03-07 14:41:00,35.4,18.6,30.47,NE,45,3.0,4.0,50,0.00,,,0.00,464,Wunderground v.1.15,2013-03-07 20:41:00,
2013-03-07 14:43:00,35.4,19.0,30.47,East,101,2.0,4.0,51,0.00,,,0.00,374,Wunderground v.1.15,2013-03-07 20:43:00,
2013-03-07 14:45:00,35.4,19.0,30.47,SSE,164,1.0,4.0,51,0.00,,,0.00,348,Wunderground v.1.15,2013-03-07 20:45:00,
2013-03-07 14:46:00,35.4,19.0,30.47,SSE,164,1.0,4.0,51,0.00,,,0.00,399,Wunderground v.1.15,2013-03-07 20:46:00,
2013-03-07 14:50:00,35.4,19.0,30.47,NNE,32,1.0,1.0,51,0.00,,,0.00,315,Wunderground v.1.15,2013-03-07 20:50:00,
2013-03-07 14:51:00,35.3,19.0,30.47,NE,42,1.0,2.0,51,0.00,,,0.00,411,Wunderground v.1.15,2013-03-07 20:51:00,
2013-03-07 14:52:00,35.4,19.5,30.47,NNE,22,1.0,4.0,52,0.00,,,0.00,413,Wunderground v.1.15,2013-03-07 20:52:00,
2013-03-07 14:58:00,35.5,19.1,30.47,NE,44,3.0,4.0,51,0.00,,,0.00,448,Wunderground v.1.15,2013-03-07 20:58:00,
2013-03-07 14:59:00,35.5,19.1,30.47,NE,44,3.0,4.0,51,0.00,,,0.00,478,Wunderground v.1.15,2013-03-07 20:59:00,
2013-03-07 15:00:00,35.5,19.1,30.47,NNW,344,3.0,3.0,51,0.00,,,0.00,436,Wunderground v.1.15,2013-03-07 21:00:00,
2013-03-07 15:05:00,35.7,18.9,30.47,NW,320,3.0,4.0,50,0.00,,,0.00,483,Wunderground v.1.15,2013-03-07 21:05:00,
2013-03-07 15:06:00,35.8,19.0,30.47,NNW,327,3.0,4.0,50,0.00,,,0.00,471,Wunderground v.1.15,2013-03-07 21:06:00,
2013-03-07 15:11:00,35.7,19.8,30.47,NNW,327,2.0,2.0,52,0.00,,,0.00,459,Wunderground v.1.15,2013-03-07 21:11:00,
2013-03-07 15:12:00,35.9,19.5,30.47,NNW,327,1.0,2.0,51,0.00,,,0.00,450,Wunderground v.1.15,2013-03-07 21:12:00,
2013-03-07 15:13:00,36.0,19.6,30.48,West,274,1.0,3.0,51,0.00,,,0.00,445,Wunderground v.1.15,2013-03-07 21:13:00,
2013-03-07 15:18:00,35.9,19.0,30.47,NW,311,1.0,4.0,50,0.00,,,0.00,308,Wunderground v.1.15,2013-03-07 21:18:00,
2013-03-07 15:19:00,35.8,19.4,30.47,ENE,72,1.0,4.0,51,0.00,,,0.00,308,Wunderground v.1.15,2013-03-07 21:19:00,
2013-03-07 15:21:00,35.7,19.3,30.47,ENE,63,2.0,5.0,51,0.00,,,0.00,274,Wunderground v.1.15,2013-03-07 21:21:00,
2013-03-07 15:23:00,35.5,19.1,30.47,NE,43,3.0,5.0,51,0.00,,,0.00,269,Wunderground v.1.15,2013-03-07 21:23:00,
2013-03-07 15:24:00,35.6,19.2,30.47,NE,56,3.0,5.0,51,0.00,,,0.00,432,Wunderground v.1.15,2013-03-07 21:24:00,
2013-03-07 15:27:00,35.7,18.9,30.47,NE,50,3.0,5.0,50,0.00,,,0.00,450,Wunderground v.1.15,2013-03-07 21:27:00,
2013-03-07 15:30:00,35.6,18.8,30.47,NE,50,3.0,3.0,50,0.00,,,0.00,403,Wunderground v.1.15,2013-03-07 21:30:00,
2013-03-07 15:31:00,35.7,19.3,30.47,NE,50,3.0,3.0,51,0.00,,,0.00,397,Wunderground v.1.15,2013-03-07 21:31:00,
2013-03-07 15:33:00,35.9,19.0,30.47,NW,311,1.0,3.0,50,0.00,,,0.00,397,Wunderground v.1.15,2013-03-07 21:33:00,
2013-03-07 15:36:00,36.0,19.6,30.47,NW,311,1.0,3.0,51,0.00,,,0.00,350,Wunderground v.1.15,2013-03-07 21:36:00,
2013-03-07 15:39:00,36.1,19.2,30.46,NNW,332,1.0,3.0,50,0.00,,,0.00,362,Wunderground v.1.15,2013-03-07 21:39:00,
2013-03-07 15:41:00,36.3,19.4,30.47,NNW,332,1.0,1.0,50,0.00,,,0.00,345,Wunderground v.1.15,2013-03-07 21:41:00,
2013-03-07 15:42:00,36.4,19.5,30.46,NNW,332,1.0,1.0,50,0.00,,,0.00,309,Wunderground v.1.15,2013-03-07 21:42:00,
2013-03-07 15:46:00,36.3,18.9,30.47,NNW,332,1.0,1.0,49,0.00,,,0.00,357,Wunderground v.1.15,2013-03-07 21:46:00,
2013-03-07 15:48:00,36.4,19.5,30.47,NNW,332,0.0,1.0,50,0.00,,,0.00,355,Wunderground v.1.15,2013-03-07 21:48:00,
2013-03-07 15:50:00,36.4,20.0,30.47,NNW,332,0.0,0.0,51,0.00,,,0.00,352,Wunderground v.1.15,2013-03-07 21:50:00,
2013-03-07 15:52:00,36.5,20.5,30.47,NNW,332,0.0,0.0,52,0.00,,,0.00,343,Wunderground v.1.15,2013-03-07 21:52:00,
2013-03-07 15:53:00,36.5,20.1,30.46,NE,40,0.0,4.0,51,0.00,,,0.00,341,Wunderground v.1.15,2013-03-07 21:53:00,
2013-03-07 15:56:00,36.5,20.1,30.46,NE,37,1.0,7.0,51,0.00,,,0.00,334,Wunderground v.1.15,2013-03-07 21:56:00,
2013-03-07 15:58:00,36.5,20.5,30.46,ESE,117,3.0,7.0,52,0.00,,,0.00,325,Wunderground v.1.15,2013-03-07 21:58:00,
2013-03-07 16:02:00,36.3,19.9,30.46,ESE,121,3.0,3.0,51,0.00,,,0.00,267,Wunderground v.1.15,2013-03-07 22:02:00,
2013-03-07 16:03:00,36.2,20.2,30.46,ESE,121,3.0,3.0,52,0.00,,,0.00,243,Wunderground v.1.15,2013-03-07 22:03:00,
2013-03-07 16:06:00,36.0,19.1,30.46,ESE,121,2.0,3.0,50,0.00,,,0.00,209,Wunderground v.1.15,2013-03-07 22:06:00,
2013-03-07 16:08:00,36.1,19.2,30.46,ESE,121,1.0,3.0,50,0.00,,,0.00,264,Wunderground v.1.15,2013-03-07 22:08:00,
2013-03-07 16:10:00,36.2,19.3,30.46,ESE,121,0.0,0.0,50,0.00,,,0.00,271,Wunderground v.1.15,2013-03-07 22:10:00,
2013-03-07 16:11:00,36.2,19.3,30.46,ESE,121,0.0,0.0,50,0.00,,,0.00,287,Wunderground v.1.15,2013-03-07 22:11:00,
2013-03-07 16:15:00,36.2,19.8,30.46,NE,53,1.0,6.0,51,0.00,,,0.00,271,Wunderground v.1.15,2013-03-07 22:15:00,
2013-03-07 16:16:00,36.2,19.8,30.46,ENE,65,1.0,6.0,51,0.00,,,0.00,265,Wunderground v.1.15,2013-03-07 22:16:00,
2013-03-07 16:17:00,36.1,19.2,30.46,NE,55,1.0,6.0,50,0.00,,,0.00,260,Wunderground v.1.15,2013-03-07 22:17:00,
2013-03-07 16:21:00,36.1,20.2,30.46,ENE,71,2.0,2.0,52,0.00,,,0.00,216,Wunderground v.1.15,2013-03-07 22:21:00,
2013-03-07 16:22:00,36.2,20.2,30.46,ENE,73,2.0,2.0,52,0.00,,,0.00,225,Wunderground v.1.15,2013-03-07 22:22:00,
2013-03-07 16:23:00,36.1,20.2,30.46,ENE,73,2.0,2.0,52,0.00,,,0.00,214,Wunderground v.1.15,2013-03-07 22:23:00,
2013-03-07 16:29:00,35.9,19.0,30.46,ESE,116,1.0,2.0,50,0.00,,,0.00,204,Wunderground v.1.15,2013-03-07 22:29:00,
2013-03-07 16:30:00,35.9,19.0,30.46,ESE,116,1.0,2.0,50,0.00,,,0.00,199,Wunderground v.1.15,2013-03-07 22:30:00,
2013-03-07 16:33:00,35.8,19.4,30.46,East,86,1.0,2.0,51,0.00,,,0.00,190,Wunderground v.1.15,2013-03-07 22:33:00,
2013-03-07 16:35:00,35.9,19.5,30.46,East,88,1.0,2.0,51,0.00,,,0.00,185,Wunderground v.1.15,2013-03-07 22:35:00,
2013-03-07 16:37:00,35.9,19.5,30.47,ENE,76,2.0,5.0,51,0.00,,,0.00,176,Wunderground v.1.15,2013-03-07 22:37:00,
2013-03-07 16:40:00,35.8,19.9,30.46,East,96,2.0,2.0,52,0.00,,,0.00,167,Wunderground v.1.15,2013-03-07 22:40:00,
2013-03-07 16:42:00,35.8,19.9,30.46,ENE,77,2.0,4.0,52,0.00,,,0.00,160,Wunderground v.1.15,2013-03-07 22:42:00,
2013-03-07 16:46:00,35.6,19.2,30.47,ESE,110,2.0,5.0,51,0.00,,,0.00,144,Wunderground v.1.15,2013-03-07 22:46:00,
2013-03-07 16:47:00,35.5,19.6,30.46,NE,51,3.0,6.0,52,0.00,,,0.00,137,Wunderground v.1.15,2013-03-07 22:47:00,
2013-03-07 16:50:00,35.3,19.4,30.47,NE,55,3.0,3.0,52,0.00,,,0.00,130,Wunderground v.1.15,2013-03-07 22:50:00,
2013-03-07 16:54:00,35.3,19.4,30.46,East,94,3.0,5.0,52,0.00,,,0.00,116,Wunderground v.1.15,2013-03-07 22:54:00,
2013-03-07 16:57:00,35.4,19.9,30.47,East,94,2.0,5.0,53,0.00,,,0.00,102,Wunderground v.1.15,2013-03-07 22:57:00,
2013-03-07 16:59:00,35.4,19.9,30.47,East,94,1.0,5.0,53,0.00,,,0.00,88,Wunderground v.1.15,2013-03-07 22:59:00,
2013-03-07 17:01:00,35.4,19.9,30.47,East,94,1.0,1.0,53,0.00,,,0.00,77,Wunderground v.1.15,2013-03-07 23:01:00,
2013-03-07 17:02:00,35.3,19.9,30.47,East,94,0.0,2.0,53,0.00,,,0.00,79,Wunderground v.1.15,2013-03-07 23:02:00,
2013-03-07 17:05:00,35.3,19.4,30.47,East,91,0.0,2.0,52,0.00,,,0.00,77,Wunderground v.1.15,2013-03-07 23:05:00,
2013-03-07 17:08:00,35.2,19.3,30.47,East,91,1.0,2.0,52,0.00,,,0.00,72,Wunderground v.1.15,2013-03-07 23:08:00,
2013-03-07 17:10:00,35.2,19.8,30.47,East,92,1.0,1.0,53,0.00,,,0.00,63,Wunderground v.1.15,2013-03-07 23:10:00,
2013-03-07 17:12:00,35.2,20.2,30.47,East,92,1.0,1.0,54,0.00,,,0.00,54,Wunderground v.1.15,2013-03-07 23:12:00,
2013-03-07 17:15:00,35.1,19.7,30.47,ENE,69,1.0,4.0,53,0.00,,,0.00,47,Wunderground v.1.15,2013-03-07 23:15:00,
2013-03-07 17:16:00,35.0,19.6,30.47,ENE,68,1.0,4.0,53,0.00,,,0.00,44,Wunderground v.1.15,2013-03-07 23:16:00,
2013-03-07 17:19:00,34.8,19.4,30.47,NE,54,2.0,4.0,53,0.00,,,0.00,32,Wunderground v.1.15,2013-03-07 23:19:00,
2013-03-07 17:22:00,34.6,19.6,30.47,East,95,3.0,5.0,54,0.00,,,0.00,28,Wunderground v.1.15,2013-03-07 23:22:00,
2013-03-07 17:27:00,34.3,19.8,30.47,NE,53,3.0,5.0,55,0.00,,,0.00,23,Wunderground v.1.15,2013-03-07 23:27:00,
2013-03-07 17:28:00,34.3,19.8,30.47,NE,53,3.0,5.0,55,0.00,,,0.00,21,Wunderground v.1.15,2013-03-07 23:28:00,
2013-03-07 17:31:00,34.1,19.6,30.47,ENE,57,3.0,4.0,55,0.00,,,0.00,21,Wunderground v.1.15,2013-03-07 23:31:00,
2013-03-07 17:32:00,34.1,19.6,30.47,NE,56,3.0,4.0,55,0.00,,,0.00,19,Wunderground v.1.15,2013-03-07 23:32:00,
2013-03-07 17:34:00,34.0,19.5,30.47,ENE,64,3.0,4.0,55,0.00,,,0.00,19,Wunderground v.1.15,2013-03-07 23:34:00,
2013-03-07 17:37:00,33.8,19.3,30.47,ENE,65,3.0,4.0,55,0.00,,,0.00,18,Wunderground v.1.15,2013-03-07 23:37:00,
2013-03-07 17:40:00,33.7,19.7,30.47,ENE,65,3.0,3.0,56,0.00,,,0.00,16,Wunderground v.1.15,2013-03-07 23:40:00,
2013-03-07 17:41:00,33.6,19.6,30.47,ENE,65,3.0,3.0,56,0.00,,,0.00,16,Wunderground v.1.15,2013-03-07 23:41:00,
2013-03-07 17:46:00,33.4,19.4,30.48,ENE,69,3.0,4.0,56,0.00,,,0.00,12,Wunderground v.1.15,2013-03-07 23:46:00,
2013-03-07 17:47:00,33.4,19.4,30.48,ENE,66,3.0,4.0,56,0.00,,,0.00,11,Wunderground v.1.15,2013-03-07 23:47:00,
2013-03-07 17:51:00,33.3,19.7,30.48,NE,49,3.0,3.0,57,0.00,,,0.00,7,Wunderground v.1.15,2013-03-07 23:51:00,
2013-03-07 17:52:00,33.2,19.6,30.48,NE,49,3.0,3.0,57,0.00,,,0.00,7,Wunderground v.1.15,2013-03-07 23:52:00,
2013-03-07 17:54:00,33.1,19.5,30.48,ENE,71,3.0,3.0,57,0.00,,,0.00,5,Wunderground v.1.15,2013-03-07 23:54:00,
2013-03-07 17:56:00,33.0,19.4,30.48,ENE,66,3.0,3.0,57,0.00,,,0.00,0,Wunderground v.1.15,2013-03-07 23:56:00,
2013-03-07 18:00:00,32.6,19.4,30.48,ENE,66,2.0,2.0,58,0.00,,,0.00,0,Wunderground v.1.15,2013-03-08 00:00:00,
2013-03-07 18:02:00,32.3,19.6,30.48,ENE,66,2.0,2.0,59,0.00,,,0.00,0,Wunderground v.1.15,2013-03-08 00:02:00,
2013-03-07 18:07:00,31.5,19.6,30.48,ENE,66,0.0,2.0,61,0.00,,,0.00,0,Wunderground v.1.15,2013-03-08 00:07:00,
2013-03-07 18:09:00,31.2,19.7,30.48,ENE,66,0.0,2.0,62,0.00,,,0.00,0,Wunderground v.1.15,2013-03-08 00:09:00,
2013-03-07 18:11:00,30.9,19.8,30.48,ENE,66,0.0,0.0,63,0.00,,,0.00,0,Wunderground v.1.15,2013-03-08 00:11:00,
2013-03-07 18:13:00,30.5,19.4,30.48,ENE,66,0.0,0.0,63,0.00,,,0.00,0,Wunderground v.1.15,2013-03-08 00:13:00,
2013-03-07 18:17:00,29.9,19.2,30.48,ENE,66,0.0,0.0,64,0.00,,,0.00,0,Wunderground v.1.15,2013-03-08 00:17:00,
2013-03-07 18:20:00,29.9,19.2,30.48,ENE,66,0.0,0.0,64,0.00,,,0.00,0,Wunderground v.1.15,2013-03-08 00:20:00,
2013-03-07 18:21:00,29.9,19.2,30.48,ENE,66,0.0,0.0,64,0.00,,,0.00,0,Wunderground v.1.15,2013-03-08 00:21:00,
2013-03-07 18:22:00,29.9,19.6,30.49,ENE,66,0.0,0.0,65,0.00,,,0.00,0,Wunderground v.1.15,2013-03-08 00:22:00,
2013-03-07 18:27:00,29.4,19.8,30.48,ENE,66,0.0,0.0,67,0.00,,,0.00,0,Wunderground v.1.15,2013-03-08 00:27:00,
2013-03-07 18:28:00,29.2,19.6,30.49,ENE,66,0.0,0.0,67,0.00,,,0.00,0,Wunderground v.1.15,2013-03-08 00:28:00,
2013-03-07 18:29:00,29.2,19.9,30.49,ENE,66,0.0,0.0,68,0.00,,,0.00,0,Wunderground v.1.15,2013-03-08 00:29:00,
2013-03-07 18:33:00,28.8,20.2,30.49,ENE,66,0.0,0.0,70,0.00,,,0.00,0,Wunderground v.1.15,2013-03-08 00:33:00,
2013-03-07 18:34:00,28.7,20.1,30.49,ENE,66,0.0,0.0,70,0.00,,,0.00,0,Wunderground v.1.15,2013-03-08 00:34:00,
2013-03-07 18:39:00,28.2,20.3,30.49,ENE,66,0.0,0.0,72,0.00,,,0.00,0,Wunderground v.1.15,2013-03-08 00:39:00,
2013-03-07 18:41:00,28.1,20.2,30.49,ENE,66,0.0,0.0,72,0.00,,,0.00,0,Wunderground v.1.15,2013-03-08 00:41:00,
2013-03-07 18:47:00,27.7,19.8,30.49,ENE,66,0.0,0.0,72,0.00,,,0.00,0,Wunderground v.1.15,2013-03-08 00:47:00,
2013-03-07 18:48:00,27.5,19.7,30.49,ENE,66,0.0,0.0,72,0.00,,,0.00,0,Wunderground v.1.15,2013-03-08 00:48:00,
2013-03-07 18:49:00,27.4,19.6,30.49,ENE,66,0.0,0.0,72,0.00,,,0.00,0,Wunderground v.1.15,2013-03-08 00:49:00,
2013-03-07 18:52:00,27.1,19.3,30.49,ENE,66,0.0,0.0,72,0.00,,,0.00,0,Wunderground v.1.15,2013-03-08 00:52:00,
2013-03-07 18:55:00,27.0,19.5,30.49,ENE,66,0.0,0.0,73,0.00,,,0.00,0,Wunderground v.1.15,2013-03-08 00:55:00,
2013-03-07 18:58:00,26.9,19.4,30.49,ENE,66,0.0,0.0,73,0.00,,,0.00,0,Wunderground v.1.15,2013-03-08 00:58:00,
2013-03-07 19:00:00,26.9,19.4,30.49,ENE,66,0.0,0.0,73,0.00,,,0.00,0,Wunderground v.1.15,2013-03-08 01:00:00,
2013-03-07 19:02:00,26.8,19.3,30.49,ENE,66,0.0,0.0,73,0.00,,,0.00,0,Wunderground v.1.15,2013-03-08 01:02:00,
2013-03-07 19:03:00,26.8,19.6,30.49,ENE,66,0.0,0.0,74,0.00,,,0.00,0,Wunderground v.1.15,2013-03-08 01:03:00,
2013-03-07 19:07:00,26.7,19.5,30.49,ENE,66,0.0,0.0,74,0.00,,,0.00,0,Wunderground v.1.15,2013-03-08 01:07:00,
2013-03-07 19:10:00,26.6,19.1,30.49,ENE,66,0.0,0.0,73,0.00,,,0.00,0,Wunderground v.1.15,2013-03-08 01:10:00,
2013-03-07 19:13:00,26.0,18.5,30.49,ENE,66,0.0,0.0,73,0.00,,,0.00,0,Wunderground v.1.15,2013-03-08 01:13:00,
2013-03-07 19:16:00,25.8,18.7,30.49,ENE,66,0.0,0.0,74,0.00,,,0.00,0,Wunderground v.1.15,2013-03-08 01:16:00,
2013-03-07 19:19:00,25.5,18.7,30.49,ENE,66,0.0,0.0,75,0.00,,,0.00,0,Wunderground v.1.15,2013-03-08 01:19:00,
2013-03-07 19:21:00,25.3,18.5,30.49,ENE,66,0.0,0.0,75,0.00,,,0.00,0,Wunderground v.1.15,2013-03-08 01:21:00,
2013-03-07 19:24:00,25.2,18.4,30.50,ENE,66,0.0,0.0,75,0.00,,,0.00,0,Wunderground v.1.15,2013-03-08 01:24:00,
2013-03-07 19:25:00,25.1,18.3,30.50,ENE,66,0.0,0.0,75,0.00,,,0.00,0,Wunderground v.1.15,2013-03-08 01:25:00,
2013-03-07 19:28:00,24.9,18.4,30.50,ENE,66,0.0,0.0,76,0.00,,,0.00,0,Wunderground v.1.15,2013-03-08 01:28:00,
2013-03-07 19:31:00,25.0,18.5,30.50,ENE,66,0.0,0.0,76,0.00,,,0.00,0,Wunderground v.1.15,2013-03-08 01:31:00,
2013-03-07 19:34:00,25.1,18.6,30.50,ENE,66,0.0,0.0,76,0.00,,,0.00,0,Wunderground v.1.15,2013-03-08 01:34:00,
2013-03-07 19:36:00,25.0,18.5,30.50,ENE,66,0.0,0.0,76,0.00,,,0.00,0,Wunderground v.1.15,2013-03-08 01:36:00,
2013-03-07 19:41:00,24.7,18.5,30.50,ENE,66,0.0,0.0,77,0.00,,,0.00,0,Wunderground v.1.15,2013-03-08 01:41:00,
2013-03-07 19:44:00,24.3,18.1,30.50,ENE,66,0.0,0.0,77,0.00,,,0.00,0,Wunderground v.1.15,2013-03-08 01:44:00,
2013-03-07 19:48:00,24.0,18.1,30.50,ENE,66,0.0,0.0,78,0.00,,,0.00,0,Wunderground v.1.15,2013-03-08 01:48:00,
2013-03-07 19:50:00,23.8,17.9,30.50,ENE,66,0.0,0.0,78,0.00,,,0.00,0,Wunderground v.1.15,2013-03-08 01:50:00,
2013-03-07 19:55:00,23.8,18.2,30.50,ENE,66,0.0,0.0,79,0.00,,,0.00,0,Wunderground v.1.15,2013-03-08 01:55:00,
2013-03-07 19:56:00,23.8,17.9,30.50,ENE,66,0.0,0.0,78,0.00,,,0.00,0,Wunderground v.1.15,2013-03-08 01:56:00,
2013-03-07 19:59:00,23.7,17.8,30.50,ENE,66,0.0,0.0,78,0.00,,,0.00,0,Wunderground v.1.15,2013-03-08 01:59:00,
2013-03-07 20:02:00,23.5,17.6,30.50,ENE,66,0.0,0.0,78,0.00,,,0.00,0,Wunderground v.1.15,2013-03-08 02:02:00,
2013-03-07 20:04:00,23.4,17.8,30.50,ENE,66,0.0,0.0,79,0.00,,,0.00,0,Wunderground v.1.15,2013-03-08 02:04:00,
2013-03-07 20:07:00,23.1,17.6,30.50,ENE,66,0.0,0.0,79,0.00,,,0.00,0,Wunderground v.1.15,2013-03-08 02:07:00,
2013-03-07 20:10:00,22.7,17.2,30.50,ENE,66,0.0,0.0,79,0.00,,,0.00,0,Wunderground v.1.15,2013-03-08 02:10:00,
2013-03-07 20:12:00,22.4,16.9,30.49,ENE,66,0.0,1.0,79,0.00,,,0.00,0,Wunderground v.1.15,2013-03-08 02:12:00,
2013-03-07 20:14:00,22.2,17.0,30.49,ENE,66,0.0,1.0,80,0.00,,,0.00,0,Wunderground v.1.15,2013-03-08 02:14:00,
2013-03-07 20:19:00,22.0,17.1,30.50,ENE,66,0.0,1.0,81,0.00,,,0.00,0,Wunderground v.1.15,2013-03-08 02:19:00,
2013-03-07 20:20:00,21.9,17.0,30.49,ENE,66,0.0,0.0,81,0.00,,,0.00,0,Wunderground v.1.15,2013-03-08 02:20:00,
2013-03-07 20:22:00,21.7,16.8,30.49,ENE,66,0.0,0.0,81,0.00,,,0.00,0,Wunderground v.1.15,2013-03-08 02:22:00,
2013-03-07 20:26:00,21.7,17.3,30.49,ENE,66,0.0,0.0,83,0.00,,,0.00,0,Wunderground v.1.15,2013-03-08 02:26:00,
2013-03-07 20:27:00,21.9,17.5,30.50,ENE,66,0.0,0.0,83,0.00,,,0.00,0,Wunderground v.1.15,2013-03-08 02:27:00,
2013-03-07 20:32:00,22.5,17.8,30.49,ENE,66,0.0,0.0,82,0.00,,,0.00,0,Wunderground v.1.15,2013-03-08 02:32:00,
2013-03-07 20:33:00,22.4,17.5,30.49,ENE,66,0.0,0.0,81,0.00,,,0.00,0,Wunderground v.1.15,2013-03-08 02:33:00,
2013-03-07 20:34:00,22.3,17.4,30.49,ENE,66,0.0,0.0,81,0.00,,,0.00,0,Wunderground v.1.15,2013-03-08 02:34:00,
2013-03-07 20:38:00,21.6,16.7,30.49,ENE,66,0.0,0.0,81,0.00,,,0.00,0,Wunderground v.1.15,2013-03-08 02:38:00,
2013-03-07 20:39:00,21.4,16.5,30.49,ENE,66,0.0,1.0,81,0.00,,,0.00,0,Wunderground v.1.15,2013-03-08 02:39:00,
2013-03-07 20:40:00,21.3,16.4,30.49,ENE,66,0.0,0.0,81,0.00,,,0.00,0,Wunderground v.1.15,2013-03-08 02:40:00,
2013-03-07 20:43:00,20.8,15.9,30.49,ENE,66,0.0,0.0,81,0.00,,,0.00,0,Wunderground v.1.15,2013-03-08 02:43:00,
2013-03-07 20:46:00,20.5,15.9,30.49,ENE,66,0.0,0.0,82,0.00,,,0.00,0,Wunderground v.1.15,2013-03-08 02:46:00,
2013-03-07 20:48:00,20.4,15.8,30.49,ENE,66,0.0,0.0,82,0.00,,,0.00,0,Wunderground v.1.15,2013-03-08 02:48:00,
2013-03-07 20:50:00,20.2,15.9,30.50,ENE,66,0.0,0.0,83,0.00,,,0.00,0,Wunderground v.1.15,2013-03-08 02:50:00,
2013-03-07 20:52:00,20.2,15.9,30.49,ENE,66,0.0,0.0,83,0.00,,,0.00,0,Wunderground v.1.15,2013-03-08 02:52:00,
2013-03-07 20:55:00,20.0,15.7,30.49,ENE,66,0.0,0.0,83,0.00,,,0.00,0,Wunderground v.1.15,2013-03-08 02:55:00,
2013-03-07 20:58:00,20.0,15.9,30.49,ENE,66,0.0,0.0,84,0.00,,,0.00,0,Wunderground v.1.15,2013-03-08 02:58:00,
2013-03-07 21:00:00,19.9,15.8,30.49,ENE,66,0.0,1.0,84,0.00,,,0.00,0,Wunderground v.1.15,2013-03-08 03:00:00,
2013-03-07 21:03:00,19.7,15.6,30.49,ENE,66,0.0,1.0,84,0.00,,,0.00,0,Wunderground v.1.15,2013-03-08 03:03:00,
2013-03-07 21:04:00,19.7,15.6,30.49,ENE,66,0.0,1.0,84,0.00,,,0.00,0,Wunderground v.1.15,2013-03-08 03:04:00,
2013-03-07 21:07:00,19.6,15.6,30.48,ENE,66,0.0,2.0,84,0.00,,,0.00,0,Wunderground v.1.15,2013-03-08 03:07:00,
2013-03-07 21:09:00,19.5,15.5,30.48,ENE,66,0.0,2.0,84,0.00,,,0.00,0,Wunderground v.1.15,2013-03-08 03:09:00,
2013-03-07 21:13:00,19.5,15.5,30.48,ENE,66,0.0,1.0,84,0.00,,,0.00,0,Wunderground v.1.15,2013-03-08 03:13:00,
2013-03-07 21:18:00,19.8,15.7,30.48,ENE,66,0.0,1.0,84,0.00,,,0.00,0,Wunderground v.1.15,2013-03-08 03:18:00,
2013-03-07 21:21:00,19.5,15.5,30.48,ENE,66,0.0,0.0,84,0.00,,,0.00,0,Wunderground v.1.15,2013-03-08 03:21:00,
2013-03-07 21:23:00,19.4,15.4,30.48,ENE,66,0.0,0.0,84,0.00,,,0.00,0,Wunderground v.1.15,2013-03-08 03:23:00,
2013-03-07 21:28:00,19.5,15.5,30.48,ENE,66,0.0,0.0,84,0.00,,,0.00,0,Wunderground v.1.15,2013-03-08 03:28:00,
2013-03-07 21:32:00,19.4,15.4,30.48,ENE,66,0.0,0.0,84,0.00,,,0.00,0,Wunderground v.1.15,2013-03-08 03:32:00,
2013-03-07 21:34:00,19.4,15.4,30.48,ENE,66,0.0,0.0,84,0.00,,,0.00,0,Wunderground v.1.15,2013-03-08 03:34:00,
2013-03-07 21:37:00,19.5,15.5,30.48,ENE,66,0.0,0.0,84,0.00,,,0.00,0,Wunderground v.1.15,2013-03-08 03:37:00,
2013-03-07 21:43:00,18.9,14.9,30.49,ENE,66,0.0,0.0,84,0.00,,,0.00,0,Wunderground v.1.15,2013-03-08 03:43:00,
2013-03-07 21:46:00,18.6,14.6,30.49,ENE,66,0.0,0.0,84,0.00,,,0.00,0,Wunderground v.1.15,2013-03-08 03:46:00,
2013-03-07 21:48:00,18.4,14.4,30.49,ENE,66,0.0,0.0,84,0.00,,,0.00,0,Wunderground v.1.15,2013-03-08 03:48:00,
2013-03-07 21:52:00,18.0,14.0,30.49,ENE,66,0.0,0.0,84,0.00,,,0.00,0,Wunderground v.1.15,2013-03-08 03:52:00,
2013-03-07 21:54:00,17.8,13.8,30.49,ENE,66,0.0,1.0,84,0.00,,,0.00,0,Wunderground v.1.15,2013-03-08 03:54:00,
2013-03-07 21:57:00,17.5,13.8,30.49,ENE,66,0.0,1.0,85,0.00,,,0.00,0,Wunderground v.1.15,2013-03-08 03:57:00,
2013-03-07 21:59:00,17.5,13.8,30.49,ENE,66,0.0,1.0,85,0.00,,,0.00,0,Wunderground v.1.15,2013-03-08 03:59:00,
2013-03-07 22:01:00,17.6,14.1,30.49,ENE,66,0.0,0.0,86,0.00,,,0.00,0,Wunderground v.1.15,2013-03-08 04:01:00,
2013-03-07 22:03:00,17.7,14.2,30.49,ENE,66,0.0,0.0,86,0.00,,,0.00,0,Wunderground v.1.15,2013-03-08 04:03:00,
2013-03-07 22:06:00,17.7,14.2,30.49,ENE,66,0.0,0.0,86,0.00,,,0.00,0,Wunderground v.1.15,2013-03-08 04:06:00,
2013-03-07 22:12:00,17.5,14.0,30.49,ENE,66,0.0,0.0,86,0.00,,,0.00,0,Wunderground v.1.15,2013-03-08 04:12:00,
2013-03-07 22:14:00,17.3,13.8,30.50,ENE,66,0.0,0.0,86,0.00,,,0.00,0,Wunderground v.1.15,2013-03-08 04:14:00,
2013-03-07 22:16:00,17.3,14.1,30.50,ENE,66,0.0,0.0,87,0.00,,,0.00,0,Wunderground v.1.15,2013-03-08 04:16:00,
2013-03-07 22:17:00,17.3,14.1,30.50,ENE,66,0.0,0.0,87,0.00,,,0.00,0,Wunderground v.1.15,2013-03-08 04:17:00,
2013-03-07 22:22:00,17.4,14.5,30.50,ENE,66,0.0,0.0,88,0.00,,,0.00,0,Wunderground v.1.15,2013-03-08 04:22:00,
2013-03-07 22:23:00,17.4,14.2,30.50,ENE,66,0.0,0.0,87,0.00,,,0.00,0,Wunderground v.1.15,2013-03-08 04:23:00,
2013-03-07 22:25:00,17.3,14.1,30.50,ENE,66,0.0,1.0,87,0.00,,,0.00,0,Wunderground v.1.15,2013-03-08 04:25:00,
2013-03-07 22:30:00,16.7,13.5,30.50,ENE,66,1.0,1.0,87,0.00,,,0.00,0,Wunderground v.1.15,2013-03-08 04:30:00,
2013-03-07 22:31:00,16.7,13.5,30.50,ENE,66,1.0,1.0,87,0.00,,,0.00,0,Wunderground v.1.15,2013-03-08 04:31:00,
2013-03-07 22:33:00,16.6,13.4,30.50,ENE,66,1.0,1.0,87,0.00,,,0.00,0,Wunderground v.1.15,2013-03-08 04:33:00,
2013-03-07 22:36:00,16.7,13.5,30.50,ENE,66,1.0,1.0,87,0.00,,,0.00,0,Wunderground v.1.15,2013-03-08 04:36:00,
2013-03-07 22:39:00,16.9,13.7,30.50,ENE,66,1.0,3.0,87,0.00,,,0.00,0,Wunderground v.1.15,2013-03-08 04:39:00,
2013-03-07 22:40:00,17.0,14.1,30.50,ENE,66,1.0,1.0,88,0.00,,,0.00,0,Wunderground v.1.15,2013-03-08 04:40:00,
2013-03-07 22:44:00,17.0,13.8,30.50,ENE,66,1.0,1.0,87,0.00,,,0.00,0,Wunderground v.1.15,2013-03-08 04:44:00,
2013-03-07 22:47:00,17.0,13.8,30.50,ENE,66,0.0,1.0,87,0.00,,,0.00,0,Wunderground v.1.15,2013-03-08 04:47:00,
2013-03-07 22:50:00,16.6,13.1,30.50,ENE,66,0.0,0.0,86,0.00,,,0.00,0,Wunderground v.1.15,2013-03-08 04:50:00,
2013-03-07 22:52:00,16.7,13.5,30.50,ENE,66,0.0,0.0,87,0.00,,,0.00,0,Wunderground v.1.15,2013-03-08 04:52:00,
2013-03-07 22:54:00,16.8,13.6,30.50,ENE,66,0.0,0.0,87,0.00,,,0.00,0,Wunderground v.1.15,2013-03-08 04:54:00,
2013-03-07 22:57:00,16.7,13.5,30.50,ENE,66,0.0,0.0,87,0.00,,,0.00,0,Wunderground v.1.15,2013-03-08 04:57:00,
2013-03-07 22:59:00,16.5,13.3,30.50,ENE,66,0.0,1.0,87,0.00,,,0.00,0,Wunderground v.1.15,2013-03-08 04:59:00,
2013-03-07 23:00:00,16.4,13.2,30.50,ENE,66,0.0,0.0,87,0.00,,,0.00,0,Wunderground v.1.15,2013-03-08 05:00:00,
2013-03-07 23:03:00,16.4,13.2,30.50,ENE,66,0.0,0.0,87,0.00,,,0.00,0,Wunderground v.1.15,2013-03-08 05:03:00,
2013-03-07 23:06:00,16.3,13.1,30.50,ENE,66,0.0,1.0,87,0.00,,,0.00,0,Wunderground v.1.15,2013-03-08 05:06:00,
2013-03-07 23:07:00,16.2,13.0,30.50,ENE,66,0.0,1.0,87,0.00,,,0.00,0,Wunderground v.1.15,2013-03-08 05:07:00,
2013-03-07 23:11:00,16.0,12.8,30.50,ENE,66,0.0,0.0,87,0.00,,,0.00,0,Wunderground v.1.15,2013-03-08 05:11:00,
2013-03-07 23:12:00,15.9,12.7,30.50,ENE,66,0.0,0.0,87,0.00,,,0.00,0,Wunderground v.1.15,2013-03-08 05:12:00,
2013-03-07 23:13:00,16.0,12.8,30.50,ENE,66,0.0,0.0,87,0.00,,,0.00,0,Wunderground v.1.15,2013-03-08 05:13:00,
2013-03-07 23:17:00,15.8,12.6,30.50,ENE,66,0.0,0.0,87,0.00,,,0.00,0,Wunderground v.1.15,2013-03-08 05:17:00,
2013-03-07 23:18:00,15.8,12.6,30.51,ENE,66,0.0,0.0,87,0.00,,,0.00,0,Wunderground v.1.15,2013-03-08 05:18:00,
2013-03-07 23:19:00,15.8,12.6,30.51,ENE,66,0.0,0.0,87,0.00,,,0.00,0,Wunderground v.1.15,2013-03-08 05:19:00,
2013-03-07 23:24:00,15.5,12.3,30.51,ENE,66,0.0,0.0,87,0.00,,,0.00,0,Wunderground v.1.15,2013-03-08 05:24:00,
2013-03-07 23:25:00,15.4,12.2,30.51,ENE,66,0.0,0.0,87,0.00,,,0.00,0,Wunderground v.1.15,2013-03-08 05:25:00,
2013-03-07 23:26:00,15.4,12.2,30.51,ENE,66,0.0,0.0,87,0.00,,,0.00,0,Wunderground v.1.15,2013-03-08 05:26:00,
2013-03-07 23:27:00,15.4,12.2,30.51,ENE,66,0.0,0.0,87,0.00,,,0.00,0,Wunderground v.1.15,2013-03-08 05:27:00,
2013-03-07 23:31:00,15.4,12.2,30.51,ENE,66,0.0,0.0,87,0.00,,,0.00,0,Wunderground v.1.15,2013-03-08 05:31:00,
2013-03-07 23:33:00,15.4,12.2,30.51,ENE,66,0.0,0.0,87,0.00,,,0.00,0,Wunderground v.1.15,2013-03-08 05:33:00,
2013-03-07 23:35:00,15.5,12.3,30.51,ENE,66,0.0,0.0,87,0.00,,,0.00,0,Wunderground v.1.15,2013-03-08 05:35:00,
2013-03-07 23:37:00,15.4,12.2,30.51,ENE,66,0.0,0.0,87,0.00,,,0.00,0,Wunderground v.1.15,2013-03-08 05:37:00,
2013-03-07 23:38:00,15.3,12.1,30.51,ENE,66,0.0,0.0,87,0.00,,,0.00,0,Wunderground v.1.15,2013-03-08 05:38:00,
2013-03-07 23:39:00,15.3,12.1,30.51,ENE,66,0.0,0.0,87,0.00,,,0.00,0,Wunderground v.1.15,2013-03-08 05:39:00,
2013-03-07 23:40:00,15.2,12.0,30.51,ENE,66,0.0,0.0,87,0.00,,,0.00,0,Wunderground v.1.15,2013-03-08 05:40:00,
2013-03-07 23:45:00,15.1,11.9,30.51,ENE,66,0.0,0.0,87,0.00,,,0.00,0,Wunderground v.1.15,2013-03-08 05:45:00,
2013-03-07 23:46:00,15.1,11.9,30.51,ENE,66,0.0,0.0,87,0.00,,,0.00,0,Wunderground v.1.15,2013-03-08 05:46:00,
2013-03-07 23:47:00,15.0,11.8,30.51,ENE,66,0.0,0.0,87,0.00,,,0.00,0,Wunderground v.1.15,2013-03-08 05:47:00,
2013-03-07 23:51:00,14.7,11.5,30.51,ENE,66,0.0,0.0,87,0.00,,,0.00,0,Wunderground v.1.15,2013-03-08 05:51:00,
2013-03-07 23:53:00,14.6,11.7,30.51,ENE,66,0.0,0.0,88,0.00,,,0.00,0,Wunderground v.1.15,2013-03-08 05:53:00,
2013-03-07 23:55:00,14.6,11.7,30.51,ENE,66,0.0,0.0,88,0.00,,,0.00,0,Wunderground v.1.15,2013-03-08 05:55:00,
2013-03-07 23:57:00,14.6,11.7,30.51,ENE,66,0.0,0.0,88,0.00,,,0.00,0,Wunderground v.1.15,2013-03-08 05:57:00,
2013-03-07 23:59:00,14.6,11.7,30.51,ENE,66,0.0,0.0,88,0.00,,,0.00,0,Wunderground v.1.15,2013-03-08 05:59:00,